Time,TemperatureF,DewpointF,PressureIn,WindDirection,WindDirectionDegrees,WindSpeedMPH,WindSpeedGustMPH,Humidity,HourlyPrecipIn,Conditions,Clouds,dailyrainin,SoftwareType,DateUTC
2013-11-18 00:00:00,61.3,56.8,29.62,South,182,12.0,24.2,85,0.00,RA,OVC,0.00,WeatherDisplay:10.37,2013-11-18 05:00:00,
2013-11-18 00:01:00,61.3,56.8,29.62,SSW,192,17.0,24.2,85,0.00,RA,OVC,0.00,WeatherDisplay:10.37,2013-11-18 05:01:00,
2013-11-18 00:02:00,61.4,56.8,29.61,South,186,13.7,17.3,85,0.00,RA,OVC,0.00,WeatherDisplay:10.37,2013-11-18 05:02:00,
2013-11-18 00:06:00,61.4,56.8,29.60,South,170,14.4,23.0,85,0.00,RA,OVC,0.00,WeatherDisplay:10.37,2013-11-18 05:06:00,
2013-11-18 00:07:00,61.4,56.8,29.60,South,176,11.2,23.0,85,0.00,RA,OVC,0.00,WeatherDisplay:10.37,2013-11-18 05:07:00,
2013-11-18 00:08:00,61.4,56.8,29.60,South,190,10.1,16.1,85,0.00,RA,OVC,0.00,WeatherDisplay:10.37,2013-11-18 05:08:00,
2013-11-18 00:11:00,61.5,56.9,29.59,South,172,10.9,19.6,85,0.00,CLR,OVC,0.00,WeatherDisplay:10.37,2013-11-18 05:11:00,
2013-11-18 00:12:00,61.5,56.9,29.59,SSW,196,11.7,18.4,85,0.00,CLR,OVC,0.00,WeatherDisplay:10.37,2013-11-18 05:12:00,
2013-11-18 00:14:00,61.5,56.9,29.59,South,179,13.9,25.3,85,0.00,CLR,OVC,0.00,WeatherDisplay:10.37,2013-11-18 05:14:00,
2013-11-18 00:16:00,61.5,56.9,29.59,SSW,196,10.7,19.6,85,0.00,CLR,OVC,0.00,WeatherDisplay:10.37,2013-11-18 05:16:00,
2013-11-18 00:17:00,61.5,56.9,29.58,South,189,9.6,12.7,85,0.00,CLR,OVC,0.00,WeatherDisplay:10.37,2013-11-18 05:17:00,
2013-11-18 00:19:00,61.6,57.0,29.59,South,183,12.6,19.6,85,0.00,CLR,OVC,0.00,WeatherDisplay:10.37,2013-11-18 05:19:00,
2013-11-18 00:21:00,61.7,57.1,29.58,South,188,11.8,21.9,85,0.00,CLR,OVC,0.00,WeatherDisplay:10.37,2013-11-18 05:21:00,
2013-11-18 00:22:00,61.6,57.0,29.59,South,190,12.5,16.1,85,0.00,CLR,OVC,0.00,WeatherDisplay:10.37,2013-11-18 05:22:00,
2013-11-18 00:23:00,61.7,57.1,29.58,SSW,200,11.0,17.3,85,0.00,CLR,OVC,0.00,WeatherDisplay:10.37,2013-11-18 05:23:00,
2013-11-18 00:24:00,61.7,57.1,29.59,SSW,193,11.1,13.0,85,0.00,CLR,OVC,0.00,WeatherDisplay:10.37,2013-11-18 05:24:00,
2013-11-18 00:26:00,61.7,57.1,29.58,South,189,13.0,19.6,85,0.00,CLR,OVC,0.00,WeatherDisplay:10.37,2013-11-18 05:26:00,
2013-11-18 00:27:00,61.7,57.1,29.58,SSW,199,13.0,17.3,85,0.00,CLR,OVC,0.00,WeatherDisplay:10.37,2013-11-18 05:27:00,
2013-11-18 00:28:00,61.7,57.1,29.58,SSW,203,14.5,21.9,85,0.00,CLR,OVC,0.00,WeatherDisplay:10.37,2013-11-18 05:28:00,
2013-11-18 00:31:00,61.9,57.3,29.58,South,184,17.0,21.9,85,0.00,CLR,OVC,0.00,WeatherDisplay:10.37,2013-11-18 05:31:00,
2013-11-18 00:32:00,61.9,57.3,29.58,South,179,13.0,21.9,85,0.00,CLR,OVC,0.00,WeatherDisplay:10.37,2013-11-18 05:32:00,
2013-11-18 00:33:00,61.9,57.0,29.57,SSE,168,13.2,19.6,84,0.00,CLR,OVC,0.00,WeatherDisplay:10.37,2013-11-18 05:33:00,
2013-11-18 00:34:00,61.9,57.0,29.57,South,187,12.3,19.6,84,0.00,CLR,OVC,0.00,WeatherDisplay:10.37,2013-11-18 05:34:00,
2013-11-18 00:36:00,62.1,57.2,29.56,South,183,12.0,19.6,84,0.00,CLR,OVC,0.00,WeatherDisplay:10.37,2013-11-18 05:36:00,
2013-11-18 00:37:00,62.1,57.2,29.56,South,175,9.7,19.6,84,0.00,CLR,OVC,0.00,WeatherDisplay:10.37,2013-11-18 05:37:00,
2013-11-18 00:38:00,62.1,57.2,29.55,SSE,155,12.9,17.3,84,0.00,CLR,OVC,0.00,WeatherDisplay:10.37,2013-11-18 05:38:00,
2013-11-18 00:39:00,62.1,57.2,29.56,South,186,17.6,21.9,84,0.00,CLR,OVC,0.00,WeatherDisplay:10.37,2013-11-18 05:39:00,
2013-11-18 00:42:00,62.3,57.4,29.56,SSE,165,16.0,26.5,84,0.00,CLR,OVC,0.00,WeatherDisplay:10.37,2013-11-18 05:42:00,
2013-11-18 00:44:00,62.4,57.5,29.56,SSW,195,19.6,25.3,84,0.00,CLR,OVC,0.00,WeatherDisplay:10.37,2013-11-18 05:44:00,
2013-11-18 00:45:00,62.5,57.6,29.56,South,188,15.7,25.3,84,0.00,CLR,OVC,0.00,WeatherDisplay:10.37,2013-11-18 05:45:00,
2013-11-18 00:47:00,62.5,57.6,29.55,South,179,17.6,27.6,84,0.00,CLR,OVC,0.00,WeatherDisplay:10.37,2013-11-18 05:47:00,
2013-11-18 00:48:00,62.5,57.3,29.55,South,191,15.3,21.9,83,0.00,CLR,OVC,0.00,WeatherDisplay:10.37,2013-11-18 05:48:00,
2013-11-18 00:49:00,62.5,57.3,29.55,South,186,12.1,19.6,83,0.00,CLR,OVC,0.00,WeatherDisplay:10.37,2013-11-18 05:49:00,
2013-11-18 00:51:00,62.5,57.3,29.54,South,184,14.0,19.6,83,0.00,CLR,OVC,0.00,WeatherDisplay:10.37,2013-11-18 05:51:00,
2013-11-18 00:52:00,62.5,57.3,29.54,South,184,15.6,23.0,83,0.00,CLR,OVC,0.00,WeatherDisplay:10.37,2013-11-18 05:52:00,
2013-11-18 00:53:00,62.5,57.3,29.54,SSE,168,15.8,23.0,83,0.00,CLR,OVC,0.00,WeatherDisplay:10.37,2013-11-18 05:53:00,
2013-11-18 00:54:00,62.5,57.3,29.54,South,176,11.2,21.0,83,0.00,CLR,OVC,0.00,WeatherDisplay:10.37,2013-11-18 05:54:00,
2013-11-18 00:56:00,62.6,57.4,29.54,SSW,204,13.2,23.0,83,0.00,CLR,OVC,0.00,WeatherDisplay:10.37,2013-11-18 05:56:00,
2013-11-18 00:57:00,62.5,57.3,29.54,SSW,199,8.8,18.4,83,0.00,CLR,OVC,0.00,WeatherDisplay:10.37,2013-11-18 05:57:00,
2013-11-18 00:58:00,62.5,57.3,29.53,SSW,199,11.0,17.0,83,0.00,CLR,OVC,0.00,WeatherDisplay:10.37,2013-11-18 05:58:00,
2013-11-18 00:59:00,62.5,57.3,29.53,SSW,199,11.0,17.0,83,0.00,CLR,OVC,0.00,WeatherDisplay:10.37,2013-11-18 05:59:00,
2013-11-18 01:01:00,62.5,57.3,29.54,South,190,12.4,20.7,83,0.00,CLR,OVC,0.00,WeatherDisplay:10.37,2013-11-18 06:01:00,
2013-11-18 01:02:00,62.6,57.4,29.54,SSW,192,12.8,19.6,83,0.00,CLR,OVC,0.00,WeatherDisplay:10.37,2013-11-18 06:02:00,
2013-11-18 01:03:00,62.6,57.4,29.54,South,183,12.8,17.3,83,0.00,CLR,OVC,0.00,WeatherDisplay:10.37,2013-11-18 06:03:00,
2013-11-18 01:04:00,62.6,57.4,29.53,SSW,205,14.3,19.6,83,0.00,CLR,OVC,0.00,WeatherDisplay:10.37,2013-11-18 06:04:00,
2013-11-18 01:05:00,62.6,57.4,29.53,SSW,207,13.9,19.6,83,0.00,CLR,OVC,0.00,WeatherDisplay:10.37,2013-11-18 06:05:00,
2013-11-18 01:06:00,62.6,57.7,29.53,South,179,14.8,24.2,84,0.00,CLR,OVC,0.00,WeatherDisplay:10.37,2013-11-18 06:06:00,
2013-11-18 01:08:00,62.6,57.4,29.53,SSW,198,14.1,22.0,83,0.00,CLR,OVC,0.00,WeatherDisplay:10.37,2013-11-18 06:08:00,
2013-11-18 01:09:00,62.5,57.6,29.54,South,183,14.8,21.9,84,0.00,CLR,OVC,0.00,WeatherDisplay:10.37,2013-11-18 06:09:00,
2013-11-18 01:10:00,62.5,57.6,29.53,SSW,197,11.9,20.7,84,0.00,CLR,OVC,0.00,WeatherDisplay:10.37,2013-11-18 06:10:00,
2013-11-18 01:11:00,62.5,57.6,29.53,South,191,17.0,21.9,84,0.00,CLR,OVC,0.00,WeatherDisplay:10.37,2013-11-18 06:11:00,
2013-11-18 01:13:00,62.4,57.5,29.53,South,190,15.4,20.7,84,0.00,CLR,OVC,0.00,WeatherDisplay:10.37,2013-11-18 06:13:00,
2013-11-18 01:14:00,62.4,57.5,29.53,SSW,195,19.8,25.3,84,0.00,CLR,OVC,0.00,WeatherDisplay:10.37,2013-11-18 06:14:00,
2013-11-18 01:15:00,62.4,57.5,29.52,SSW,195,19.8,26.5,84,0.00,CLR,OVC,0.00,WeatherDisplay:10.37,2013-11-18 06:15:00,
2013-11-18 01:17:00,62.5,57.6,29.52,South,172,14.1,19.6,84,0.00,CLR,OVC,0.00,WeatherDisplay:10.37,2013-11-18 06:17:00,
2013-11-18 01:18:00,62.5,57.6,29.52,SSW,198,14.5,19.6,84,0.00,CLR,OVC,0.00,WeatherDisplay:10.37,2013-11-18 06:18:00,
2013-11-18 01:19:00,62.5,57.6,29.52,SSW,201,14.9,19.6,84,0.00,CLR,OVC,0.00,WeatherDisplay:10.37,2013-11-18 06:19:00,
2013-11-18 01:20:00,62.5,57.6,29.51,South,191,9.6,18.0,84,0.00,CLR,OVC,0.00,WeatherDisplay:10.37,2013-11-18 06:20:00,
2013-11-18 01:22:00,62.5,57.6,29.51,SSW,201,11.6,18.4,84,0.00,CLR,OVC,0.00,WeatherDisplay:10.37,2013-11-18 06:22:00,
2013-11-18 01:23:00,62.6,57.7,29.51,SSW,194,14.1,19.6,84,0.00,CLR,OVC,0.00,WeatherDisplay:10.37,2013-11-18 06:23:00,
2013-11-18 01:24:00,62.6,57.7,29.50,South,178,13.7,24.0,84,0.00,CLR,OVC,0.00,WeatherDisplay:10.37,2013-11-18 06:24:00,
2013-11-18 01:25:00,62.6,57.7,29.51,South,191,14.0,24.2,84,0.00,CLR,OVC,0.00,WeatherDisplay:10.37,2013-11-18 06:25:00,
2013-11-18 01:26:00,62.7,57.5,29.50,South,176,13.1,20.7,83,0.00,CLR,OVC,0.00,WeatherDisplay:10.37,2013-11-18 06:26:00,
2013-11-18 01:28:00,62.7,57.5,29.50,South,191,13.4,19.6,83,0.00,CLR,OVC,0.00,WeatherDisplay:10.37,2013-11-18 06:28:00,
2013-11-18 01:29:00,62.7,57.5,29.49,SSE,162,18.1,23.0,83,0.00,CLR,OVC,0.00,WeatherDisplay:10.37,2013-11-18 06:29:00,
2013-11-18 01:30:00,62.8,57.6,29.49,South,186,13.6,25.3,83,0.00,CLR,OVC,0.00,WeatherDisplay:10.37,2013-11-18 06:30:00,
2013-11-18 01:32:00,62.9,57.7,29.48,South,175,16.2,24.2,83,0.00,CLR,OVC,0.00,WeatherDisplay:10.37,2013-11-18 06:32:00,
2013-11-18 01:33:00,62.9,57.7,29.48,SSW,198,15.5,23.0,83,0.00,CLR,OVC,0.00,WeatherDisplay:10.37,2013-11-18 06:33:00,
2013-11-18 01:34:00,63.0,57.8,29.48,South,187,18.1,26.5,83,0.00,CLR,OVC,0.00,WeatherDisplay:10.37,2013-11-18 06:34:00,
2013-11-18 01:35:00,63.0,57.8,29.48,South,182,12.6,20.7,83,0.00,CLR,OVC,0.00,WeatherDisplay:10.37,2013-11-18 06:35:00,
2013-11-18 01:36:00,63.0,57.8,29.48,South,182,12.7,20.7,83,0.00,CLR,OVC,0.00,WeatherDisplay:10.37,2013-11-18 06:36:00,
2013-11-18 01:37:00,63.1,57.5,29.47,South,184,14.4,17.3,82,0.00,CLR,OVC,0.00,WeatherDisplay:10.37,2013-11-18 06:37:00,
2013-11-18 01:38:00,63.1,57.5,29.47,South,186,17.4,26.5,82,0.00,CLR,OVC,0.00,WeatherDisplay:10.37,2013-11-18 06:38:00,
2013-11-18 01:39:00,63.1,57.5,29.47,SSW,197,13.3,26.5,82,0.00,CLR,OVC,0.00,WeatherDisplay:10.37,2013-11-18 06:39:00,
2013-11-18 01:41:00,63.2,57.6,29.47,South,184,11.9,18.4,82,0.00,CLR,OVC,0.00,WeatherDisplay:10.37,2013-11-18 06:41:00,
2013-11-18 01:43:00,63.3,57.7,29.47,SSW,192,15.3,28.8,82,0.00,CLR,OVC,0.00,WeatherDisplay:10.37,2013-11-18 06:43:00,
2013-11-18 01:44:00,63.3,57.7,29.46,SSW,202,17.4,31.1,82,0.00,CLR,OVC,0.00,WeatherDisplay:10.37,2013-11-18 06:44:00,
2013-11-18 01:45:00,63.4,57.8,29.46,South,181,16.4,31.1,82,0.00,CLR,OVC,0.00,WeatherDisplay:10.37,2013-11-18 06:45:00,
2013-11-18 01:46:00,63.4,57.8,29.46,SSW,195,18.1,25.3,82,0.00,CLR,OVC,0.00,WeatherDisplay:10.37,2013-11-18 06:46:00,
2013-11-18 01:48:00,63.5,57.6,29.46,SSW,196,13.6,19.6,81,0.00,CLR,OVC,0.00,WeatherDisplay:10.37,2013-11-18 06:48:00,
2013-11-18 01:49:00,63.5,57.6,29.45,SSW,201,12.9,16.1,81,0.00,CLR,OVC,0.00,WeatherDisplay:10.37,2013-11-18 06:49:00,
2013-11-18 01:50:00,63.6,57.7,29.46,South,186,12.6,19.6,81,0.00,CLR,OVC,0.00,WeatherDisplay:10.37,2013-11-18 06:50:00,
2013-11-18 01:51:00,63.6,57.7,29.46,SSW,202,16.2,19.6,81,0.00,CLR,OVC,0.00,WeatherDisplay:10.37,2013-11-18 06:51:00,
2013-11-18 01:54:00,63.6,57.7,29.46,SSW,192,15.1,21.9,81,0.00,CLR,OVC,0.00,WeatherDisplay:10.37,2013-11-18 06:54:00,
2013-11-18 01:55:00,63.6,57.7,29.45,South,185,14.3,21.9,81,0.00,CLR,OVC,0.00,WeatherDisplay:10.37,2013-11-18 06:55:00,
2013-11-18 01:56:00,63.7,57.8,29.45,SSW,193,17.5,20.7,81,0.00,CLR,OVC,0.00,WeatherDisplay:10.37,2013-11-18 06:56:00,
2013-11-18 01:57:00,63.7,57.8,29.45,SSW,200,17.0,20.7,81,0.00,CLR,OVC,0.00,WeatherDisplay:10.37,2013-11-18 06:57:00,
2013-11-18 01:59:00,63.7,57.8,29.45,SSW,196,17.0,27.6,81,0.00,CLR,OVC,0.00,WeatherDisplay:10.37,2013-11-18 06:59:00,
2013-11-18 02:00:00,63.7,57.8,29.45,SSW,199,14.2,27.6,81,0.00,CLR,OVC,0.00,WeatherDisplay:10.37,2013-11-18 07:00:00,
2013-11-18 02:02:00,63.7,57.8,29.45,SSW,198,15.3,24.2,81,0.00,CLR,OVC,0.00,WeatherDisplay:10.37,2013-11-18 07:02:00,
2013-11-18 02:04:00,63.7,57.8,29.45,SSW,210,10.4,18.4,81,0.00,CLR,OVC,0.00,WeatherDisplay:10.37,2013-11-18 07:04:00,
2013-11-18 02:06:00,63.7,57.8,29.45,South,182,18.5,25.3,81,0.00,CLR,OVC,0.00,WeatherDisplay:10.37,2013-11-18 07:06:00,
2013-11-18 02:07:00,63.7,57.8,29.45,South,182,10.3,20.7,81,0.00,CLR,OVC,0.00,WeatherDisplay:10.37,2013-11-18 07:07:00,
2013-11-18 02:08:00,63.7,57.8,29.45,SSW,202,9.4,13.0,81,0.00,CLR,OVC,0.00,WeatherDisplay:10.37,2013-11-18 07:08:00,
2013-11-18 02:09:00,63.7,57.8,29.44,SSW,211,14.0,23.0,81,0.00,CLR,OVC,0.00,WeatherDisplay:10.37,2013-11-18 07:09:00,
2013-11-18 02:11:00,63.6,57.7,29.44,SSW,203,14.6,21.9,81,0.00,CLR,OVC,0.00,WeatherDisplay:10.37,2013-11-18 07:11:00,
2013-11-18 02:12:00,63.6,57.7,29.44,SSW,198,10.0,21.9,81,0.00,CLR,OVC,0.00,WeatherDisplay:10.37,2013-11-18 07:12:00,
2013-11-18 02:13:00,63.6,57.7,29.44,SSW,212,12.8,17.3,81,0.00,CLR,OVC,0.00,WeatherDisplay:10.37,2013-11-18 07:13:00,
2013-11-18 02:14:00,63.6,57.7,29.44,SSW,205,12.0,17.3,81,0.00,CLR,OVC,0.00,WeatherDisplay:10.37,2013-11-18 07:14:00,
2013-11-18 02:15:00,63.6,57.7,29.44,SSW,200,12.0,18.4,81,0.00,CLR,OVC,0.00,WeatherDisplay:10.37,2013-11-18 07:15:00,
2013-11-18 02:16:00,63.5,57.6,29.44,SSW,203,15.2,17.3,81,0.00,CLR,OVC,0.00,WeatherDisplay:10.37,2013-11-18 07:16:00,
2013-11-18 02:18:00,63.5,57.9,29.45,SSW,197,12.1,19.6,82,0.00,CLR,OVC,0.00,WeatherDisplay:10.37,2013-11-18 07:18:00,
2013-11-18 02:19:00,63.5,57.9,29.45,SSW,208,13.8,19.6,82,0.00,CLR,OVC,0.00,WeatherDisplay:10.37,2013-11-18 07:19:00,
2013-11-18 02:20:00,63.5,57.9,29.45,SSW,206,13.8,19.6,82,0.00,CLR,OVC,0.00,WeatherDisplay:10.37,2013-11-18 07:20:00,
2013-11-18 02:22:00,63.5,57.9,29.44,South,191,14.3,24.2,82,0.00,CLR,OVC,0.00,WeatherDisplay:10.37,2013-11-18 07:22:00,
2013-11-18 02:23:00,63.5,57.9,29.44,South,189,12.6,17.3,82,0.00,CLR,OVC,0.00,WeatherDisplay:10.37,2013-11-18 07:23:00,
2013-11-18 02:24:00,63.4,57.8,29.44,SSE,166,13.9,18.4,82,0.00,CLR,OVC,0.00,WeatherDisplay:10.37,2013-11-18 07:24:00,
2013-11-18 02:25:00,63.4,57.8,29.44,South,174,12.8,19.6,82,0.00,CLR,OVC,0.00,WeatherDisplay:10.37,2013-11-18 07:25:00,
2013-11-18 02:27:00,63.5,57.9,29.44,SSW,205,16.0,21.9,82,0.00,CLR,OVC,0.00,WeatherDisplay:10.37,2013-11-18 07:27:00,
2013-11-18 02:28:00,63.5,57.9,29.44,SSW,202,18.3,25.3,82,0.00,CLR,OVC,0.00,WeatherDisplay:10.37,2013-11-18 07:28:00,
2013-11-18 02:29:00,63.5,57.9,29.44,SSW,203,19.3,25.3,82,0.00,CLR,OVC,0.00,WeatherDisplay:10.37,2013-11-18 07:29:00,
2013-11-18 02:30:00,63.6,58.0,29.44,SSW,197,13.9,21.9,82,0.00,CLR,OVC,0.00,WeatherDisplay:10.37,2013-11-18 07:30:00,
2013-11-18 02:32:00,63.6,58.0,29.43,South,190,12.5,19.6,82,0.00,CLR,OVC,0.00,WeatherDisplay:10.37,2013-11-18 07:32:00,
2013-11-18 02:33:00,63.6,58.0,29.43,SSW,207,11.9,22.0,82,0.00,CLR,OVC,0.00,WeatherDisplay:10.37,2013-11-18 07:33:00,
2013-11-18 02:34:00,63.6,58.0,29.43,SSW,201,17.2,21.9,82,0.00,CLR,OVC,0.00,WeatherDisplay:10.37,2013-11-18 07:34:00,
2013-11-18 02:35:00,63.6,58.0,29.43,South,185,13.0,19.6,82,0.00,CLR,OVC,0.00,WeatherDisplay:10.37,2013-11-18 07:35:00,
2013-11-18 02:37:00,63.5,57.9,29.43,South,187,19.2,29.9,82,0.00,CLR,OVC,0.00,WeatherDisplay:10.37,2013-11-18 07:37:00,
2013-11-18 02:39:00,63.4,58.1,29.43,SSW,199,16.7,21.9,83,0.00,CLR,OVC,0.01,WeatherDisplay:10.37,2013-11-18 07:39:00,
2013-11-18 02:40:00,63.4,58.1,29.42,South,180,13.3,17.3,83,0.01,RA,OVC,0.01,WeatherDisplay:10.37,2013-11-18 07:40:00,
2013-11-18 02:42:00,63.1,58.5,29.42,SSW,198,12.3,27.6,85,0.01,RA,OVC,0.01,WeatherDisplay:10.37,2013-11-18 07:42:00,
2013-11-18 02:44:00,62.9,58.3,29.42,SSW,195,11.4,19.6,85,0.01,RA,OVC,0.02,WeatherDisplay:10.37,2013-11-18 07:44:00,
2013-11-18 02:45:00,62.9,58.6,29.42,South,189,11.7,16.1,86,0.02,RA,OVC,0.02,WeatherDisplay:10.37,2013-11-18 07:45:00,
2013-11-18 02:48:00,62.5,58.6,29.41,South,180,11.0,19.6,87,0.02,RA,OVC,0.02,WeatherDisplay:10.37,2013-11-18 07:48:00,
2013-11-18 02:49:00,62.4,58.8,29.41,South,177,11.1,16.1,88,0.02,RA,OVC,0.02,WeatherDisplay:10.37,2013-11-18 07:49:00,
2013-11-18 02:50:00,62.4,58.8,29.41,South,183,10.7,16.1,88,0.02,RA,OVC,0.02,WeatherDisplay:10.37,2013-11-18 07:50:00,
2013-11-18 02:51:00,62.3,58.7,29.41,South,191,10.6,17.3,88,0.02,RA,OVC,0.02,WeatherDisplay:10.37,2013-11-18 07:51:00,
2013-11-18 02:53:00,62.2,58.6,29.41,South,187,14.3,23.0,88,0.02,RA,OVC,0.02,WeatherDisplay:10.37,2013-11-18 07:53:00,
2013-11-18 02:54:00,62.1,58.8,29.41,South,170,10.1,23.0,89,0.02,RA,OVC,0.02,WeatherDisplay:10.37,2013-11-18 07:54:00,
2013-11-18 02:55:00,62.1,58.8,29.40,SSE,158,11.2,23.0,89,0.02,RA,OVC,0.02,WeatherDisplay:10.37,2013-11-18 07:55:00,
2013-11-18 02:56:00,62.1,58.8,29.41,South,184,14.6,20.7,89,0.02,,OVC,0.02,WeatherDisplay:10.37,2013-11-18 07:56:00,
2013-11-18 02:58:00,62.0,58.7,29.40,South,179,14.1,19.6,89,0.02,CLR,OVC,0.02,WeatherDisplay:10.37,2013-11-18 07:58:00,
2013-11-18 02:59:00,62.0,59.0,29.40,SSW,197,14.0,18.4,90,0.02,CLR,OVC,0.02,WeatherDisplay:10.37,2013-11-18 07:59:00,
2013-11-18 03:00:00,62.0,59.0,29.40,SSW,197,14.0,18.4,90,0.02,CLR,OVC,0.02,WeatherDisplay:10.37,2013-11-18 08:00:00,
2013-11-18 03:01:00,61.9,58.9,29.39,South,183,12.4,19.6,90,0.02,CLR,OVC,0.02,WeatherDisplay:10.37,2013-11-18 08:01:00,
2013-11-18 03:02:00,61.9,59.2,29.39,South,184,12.0,19.6,91,0.02,CLR,OVC,0.02,WeatherDisplay:10.37,2013-11-18 08:02:00,
2013-11-18 03:03:00,61.8,59.1,29.39,South,176,15.1,18.0,91,0.02,CLR,OVC,0.02,WeatherDisplay:10.37,2013-11-18 08:03:00,
2013-11-18 03:05:00,61.8,59.1,29.39,South,187,15.0,23.0,91,0.02,CLR,OVC,0.02,WeatherDisplay:10.37,2013-11-18 08:05:00,
2013-11-18 03:07:00,61.8,59.1,29.39,SSW,195,17.0,23.0,91,0.02,CLR,OVC,0.02,WeatherDisplay:10.37,2013-11-18 08:07:00,
2013-11-18 03:08:00,61.8,59.1,29.39,South,172,12.4,20.7,91,0.02,CLR,OVC,0.02,WeatherDisplay:10.37,2013-11-18 08:08:00,
2013-11-18 03:10:00,61.8,59.1,29.38,South,190,15.3,23.0,91,0.02,CLR,OVC,0.02,WeatherDisplay:10.37,2013-11-18 08:10:00,
2013-11-18 03:12:00,61.8,59.5,29.38,SSE,162,12.6,26.5,92,0.02,CLR,OVC,0.02,WeatherDisplay:10.37,2013-11-18 08:12:00,
2013-11-18 03:15:00,61.9,59.5,29.38,SSE,167,15.2,21.9,92,0.02,CLR,OVC,0.02,WeatherDisplay:10.37,2013-11-18 08:15:00,
2013-11-18 03:16:00,61.8,59.5,29.38,South,171,15.9,28.0,92,0.02,CLR,OVC,0.03,WeatherDisplay:10.37,2013-11-18 08:16:00,
2013-11-18 03:17:00,61.9,59.5,29.38,SSW,193,18.7,31.1,92,0.03,RA,OVC,0.03,WeatherDisplay:10.37,2013-11-18 08:17:00,
2013-11-18 03:20:00,61.9,59.5,29.37,South,178,13.6,26.5,92,0.03,RA,OVC,0.03,WeatherDisplay:10.37,2013-11-18 08:20:00,
2013-11-18 03:21:00,61.9,59.9,29.38,South,184,13.0,20.7,93,0.03,RA,OVC,0.03,WeatherDisplay:10.37,2013-11-18 08:21:00,
2013-11-18 03:23:00,61.9,59.9,29.38,SSW,198,14.2,25.3,93,0.03,RA,OVC,0.03,WeatherDisplay:10.37,2013-11-18 08:23:00,
2013-11-18 03:25:00,61.8,59.8,29.37,SSW,198,12.9,21.9,93,0.03,RA,OVC,0.03,WeatherDisplay:10.37,2013-11-18 08:25:00,
2013-11-18 03:26:00,61.8,59.8,29.38,South,188,12.5,21.9,93,0.03,RA,OVC,0.03,WeatherDisplay:10.37,2013-11-18 08:26:00,
2013-11-18 03:27:00,61.7,59.7,29.37,South,173,11.0,16.1,93,0.03,,OVC,0.03,WeatherDisplay:10.37,2013-11-18 08:27:00,
2013-11-18 03:28:00,61.7,59.7,29.37,South,182,13.0,24.2,93,0.03,,OVC,0.03,WeatherDisplay:10.37,2013-11-18 08:28:00,
2013-11-18 03:30:00,61.6,59.9,29.37,SSW,193,10.2,16.0,94,0.04,RA,OVC,0.04,WeatherDisplay:10.37,2013-11-18 08:30:00,
2013-11-18 03:31:00,61.6,59.9,29.37,SSE,160,12.4,20.0,94,0.04,RA,OVC,0.04,WeatherDisplay:10.37,2013-11-18 08:31:00,
2013-11-18 03:32:00,61.6,59.9,29.36,South,191,15.7,23.0,94,0.04,RA,OVC,0.04,WeatherDisplay:10.37,2013-11-18 08:32:00,
2013-11-18 03:33:00,61.6,59.9,29.36,SSE,165,17.0,26.5,94,0.04,RA,OVC,0.04,WeatherDisplay:10.37,2013-11-18 08:33:00,
2013-11-18 03:36:00,61.5,60.1,29.36,South,174,15.1,23.0,95,0.05,RA,OVC,0.05,WeatherDisplay:10.37,2013-11-18 08:36:00,
2013-11-18 03:37:00,61.5,60.1,29.36,SSW,207,12.9,18.0,95,0.05,RA,OVC,0.05,WeatherDisplay:10.37,2013-11-18 08:37:00,
2013-11-18 03:38:00,61.5,60.1,29.36,South,173,13.4,20.7,95,0.05,RA,OVC,0.05,WeatherDisplay:10.37,2013-11-18 08:38:00,
2013-11-18 03:39:00,61.5,60.1,29.36,South,190,16.6,27.6,95,0.06,RA,OVC,0.06,WeatherDisplay:10.37,2013-11-18 08:39:00,
2013-11-18 03:41:00,61.5,60.1,29.36,SSW,194,14.6,27.6,95,0.05,RA,OVC,0.06,WeatherDisplay:10.37,2013-11-18 08:41:00,
2013-11-18 03:42:00,61.5,60.1,29.35,South,185,12.1,17.3,95,0.05,RA,OVC,0.06,WeatherDisplay:10.37,2013-11-18 08:42:00,
2013-11-18 03:43:00,61.4,60.2,29.35,South,188,13.6,17.3,96,0.05,RA,OVC,0.06,WeatherDisplay:10.37,2013-11-18 08:43:00,
2013-11-18 03:44:00,61.4,60.2,29.36,SSW,193,15.5,21.9,96,0.05,RA,OVC,0.06,WeatherDisplay:10.37,2013-11-18 08:44:00,
2013-11-18 03:46:00,61.4,60.2,29.35,South,178,8.8,18.4,96,0.04,RA,OVC,0.06,WeatherDisplay:10.37,2013-11-18 08:46:00,
2013-11-18 03:47:00,61.4,60.2,29.35,SSW,196,11.4,15.0,96,0.04,RA,OVC,0.06,WeatherDisplay:10.37,2013-11-18 08:47:00,
2013-11-18 03:48:00,61.4,60.2,29.35,SSE,168,12.5,21.9,96,0.05,RA,OVC,0.07,WeatherDisplay:10.37,2013-11-18 08:48:00,
2013-11-18 03:49:00,61.3,60.2,29.35,South,188,10.8,20.7,96,0.05,RA,OVC,0.07,WeatherDisplay:10.37,2013-11-18 08:49:00,
2013-11-18 03:51:00,61.3,60.2,29.35,South,182,12.5,18.4,96,0.05,RA,OVC,0.07,WeatherDisplay:10.37,2013-11-18 08:51:00,
2013-11-18 03:52:00,61.3,60.4,29.35,South,187,8.8,18.4,97,0.05,RA,OVC,0.07,WeatherDisplay:10.37,2013-11-18 08:52:00,
2013-11-18 03:53:00,61.2,60.3,29.34,South,173,12.9,16.1,97,0.05,RA,OVC,0.07,WeatherDisplay:10.37,2013-11-18 08:53:00,
2013-11-18 03:54:00,61.2,60.3,29.35,South,190,13.7,19.6,97,0.05,RA,OVC,0.07,WeatherDisplay:10.37,2013-11-18 08:54:00,
2013-11-18 03:56:00,61.3,60.4,29.34,South,173,16.2,24.2,97,0.05,RA,OVC,0.07,WeatherDisplay:10.37,2013-11-18 08:56:00,
2013-11-18 03:57:00,61.2,60.3,29.34,South,191,14.5,21.9,97,0.05,RA,OVC,0.07,WeatherDisplay:10.37,2013-11-18 08:57:00,
2013-11-18 03:58:00,61.3,60.4,29.34,South,178,16.8,21.9,97,0.06,RA,OVC,0.08,WeatherDisplay:10.37,2013-11-18 08:58:00,
2013-11-18 03:59:00,61.3,60.4,29.35,South,183,15.3,23.0,97,0.06,RA,OVC,0.08,WeatherDisplay:10.37,2013-11-18 08:59:00,
2013-11-18 04:00:00,61.3,60.4,29.34,South,173,10.5,20.7,97,0.06,RA,OVC,0.08,WeatherDisplay:10.37,2013-11-18 09:00:00,
2013-11-18 04:02:00,61.3,60.4,29.34,South,184,13.7,24.2,97,0.07,RA,OVC,0.09,WeatherDisplay:10.37,2013-11-18 09:02:00,
2013-11-18 04:03:00,61.3,60.4,29.34,South,173,15.1,19.6,97,0.07,RA,OVC,0.09,WeatherDisplay:10.37,2013-11-18 09:03:00,
2013-11-18 04:04:00,61.3,60.4,29.34,South,185,14.6,19.6,97,0.07,RA,OVC,0.09,WeatherDisplay:10.37,2013-11-18 09:04:00,
2013-11-18 04:06:00,61.3,60.4,29.34,South,177,12.4,24.0,97,0.07,RA,OVC,0.09,WeatherDisplay:10.37,2013-11-18 09:06:00,
2013-11-18 04:07:00,61.2,60.3,29.33,South,177,16.8,26.5,97,0.08,RA,OVC,0.10,WeatherDisplay:10.37,2013-11-18 09:07:00,
2013-11-18 04:08:00,61.3,60.7,29.33,SSE,153,15.7,24.2,98,0.08,RA,OVC,0.10,WeatherDisplay:10.37,2013-11-18 09:08:00,
2013-11-18 04:10:00,61.3,60.7,29.33,SSW,201,13.1,21.0,98,0.08,RA,OVC,0.10,WeatherDisplay:10.37,2013-11-18 09:10:00,
2013-11-18 04:11:00,61.3,60.7,29.33,South,185,18.1,31.1,98,0.08,RA,OVC,0.10,WeatherDisplay:10.37,2013-11-18 09:11:00,
2013-11-18 04:12:00,61.3,60.7,29.33,South,180,13.7,31.1,98,0.08,RA,OVC,0.10,WeatherDisplay:10.37,2013-11-18 09:12:00,
2013-11-18 04:15:00,61.3,60.7,29.33,South,179,15.6,25.3,98,0.09,RA,OVC,0.11,WeatherDisplay:10.37,2013-11-18 09:15:00,
2013-11-18 04:16:00,61.4,60.8,29.33,South,177,14.6,19.6,98,0.09,RA,OVC,0.11,WeatherDisplay:10.37,2013-11-18 09:16:00,
2013-11-18 04:17:00,61.4,60.8,29.33,South,170,14.8,20.7,98,0.08,RA,OVC,0.11,WeatherDisplay:10.37,2013-11-18 09:17:00,
2013-11-18 04:20:00,61.4,60.8,29.33,SSW,198,17.4,26.5,98,0.08,RA,OVC,0.11,WeatherDisplay:10.37,2013-11-18 09:20:00,
2013-11-18 04:21:00,61.4,60.8,29.32,SSW,204,19.1,26.5,98,0.08,RA,OVC,0.11,WeatherDisplay:10.37,2013-11-18 09:21:00,
2013-11-18 04:22:00,61.5,60.9,29.33,South,188,21.1,27.6,98,0.08,RA,OVC,0.11,WeatherDisplay:10.37,2013-11-18 09:22:00,
2013-11-18 04:23:00,61.4,60.8,29.33,SSW,202,18.9,25.3,98,0.08,,OVC,0.11,WeatherDisplay:10.37,2013-11-18 09:23:00,
2013-11-18 04:25:00,61.5,60.9,29.33,South,175,15.4,23.0,98,0.08,CLR,OVC,0.11,WeatherDisplay:10.37,2013-11-18 09:25:00,
2013-11-18 04:26:00,61.5,60.9,29.33,South,189,16.4,29.9,98,0.08,CLR,OVC,0.11,WeatherDisplay:10.37,2013-11-18 09:26:00,
2013-11-18 04:27:00,61.5,60.9,29.33,SSW,199,15.6,24.2,98,0.08,CLR,OVC,0.11,WeatherDisplay:10.37,2013-11-18 09:27:00,
2013-11-18 04:28:00,61.5,60.9,29.33,SSW,201,16.1,20.7,98,0.08,CLR,OVC,0.11,WeatherDisplay:10.37,2013-11-18 09:28:00,
2013-11-18 04:30:00,61.5,60.9,29.33,South,176,16.2,25.3,98,0.07,CLR,OVC,0.11,WeatherDisplay:10.37,2013-11-18 09:30:00,
2013-11-18 04:32:00,61.5,60.9,29.33,SSW,195,14.5,24.2,98,0.07,CLR,OVC,0.11,WeatherDisplay:10.37,2013-11-18 09:32:00,
2013-11-18 04:33:00,61.5,60.9,29.32,SSW,197,16.0,21.0,98,0.07,CLR,OVC,0.12,WeatherDisplay:10.37,2013-11-18 09:33:00,
2013-11-18 04:35:00,61.5,60.9,29.33,SSW,193,17.4,26.5,98,0.07,RA,OVC,0.12,WeatherDisplay:10.37,2013-11-18 09:35:00,
2013-11-18 04:37:00,61.5,60.9,29.32,SSW,198,15.5,20.7,98,0.07,RA,OVC,0.12,WeatherDisplay:10.37,2013-11-18 09:37:00,
2013-11-18 04:38:00,61.5,60.9,29.33,SSW,193,17.2,21.9,98,0.07,RA,OVC,0.12,WeatherDisplay:10.37,2013-11-18 09:38:00,
2013-11-18 04:40:00,61.5,60.9,29.33,South,189,15.7,24.2,98,0.06,RA,OVC,0.12,WeatherDisplay:10.37,2013-11-18 09:40:00,
2013-11-18 04:42:00,61.4,60.8,29.33,SSW,193,14.8,18.0,98,0.06,RA,OVC,0.12,WeatherDisplay:10.37,2013-11-18 09:42:00,
2013-11-18 04:43:00,61.4,60.8,29.33,SSW,200,15.9,20.7,98,0.06,RA,OVC,0.12,WeatherDisplay:10.37,2013-11-18 09:43:00,
2013-11-18 04:44:00,61.4,60.8,29.33,SSW,200,17.2,20.7,98,0.06,,OVC,0.12,WeatherDisplay:10.37,2013-11-18 09:44:00,
2013-11-18 04:46:00,61.4,60.8,29.34,SSW,195,18.2,23.0,98,0.07,RA,OVC,0.13,WeatherDisplay:10.37,2013-11-18 09:46:00,
2013-11-18 04:47:00,61.4,60.8,29.35,South,187,17.2,23.0,98,0.07,RA,OVC,0.13,WeatherDisplay:10.37,2013-11-18 09:47:00,
2013-11-18 04:48:00,61.4,61.1,29.35,SW,222,15.8,23.0,99,0.06,RA,OVC,0.13,WeatherDisplay:10.37,2013-11-18 09:48:00,
2013-11-18 04:49:00,61.4,61.1,29.38,WSW,251,17.8,21.9,99,0.06,RA,OVC,0.13,WeatherDisplay:10.37,2013-11-18 09:49:00,
2013-11-18 04:51:00,61.2,60.6,29.39,West,269,22.8,29.0,98,0.09,RA,OVC,0.18,WeatherDisplay:10.37,2013-11-18 09:51:00,
2013-11-18 04:52:00,61.0,60.4,29.39,SW,234,26.6,36.8,98,0.11,RA,OVC,0.18,WeatherDisplay:10.37,2013-11-18 09:52:00,
2013-11-18 04:53:00,61.0,60.4,29.40,SW,234,28.8,36.8,98,0.11,RA,OVC,0.18,WeatherDisplay:10.37,2013-11-18 09:53:00,
2013-11-18 04:54:00,60.7,59.8,29.40,WSW,249,27.9,34.5,97,0.11,RA,OVC,0.19,WeatherDisplay:10.37,2013-11-18 09:54:00,
2013-11-18 04:57:00,60.0,58.6,29.39,SW,233,24.3,34.5,95,0.12,RA,OVC,0.19,WeatherDisplay:10.37,2013-11-18 09:57:00,
2013-11-18 04:58:00,59.8,58.4,29.39,SW,236,26.6,33.4,95,0.11,RA,OVC,0.19,WeatherDisplay:10.37,2013-11-18 09:58:00,
2013-11-18 04:59:00,59.6,57.9,29.39,SW,235,22.8,27.6,94,0.11,RA,OVC,0.19,WeatherDisplay:10.37,2013-11-18 09:59:00,
2013-11-18 05:02:00,59.5,57.8,29.38,SW,225,22.2,31.1,94,0.10,RA,OVC,0.19,WeatherDisplay:10.37,2013-11-18 10:02:00,
2013-11-18 05:03:00,59.6,57.9,29.38,SW,228,27.3,32.2,94,0.10,RA,OVC,0.19,WeatherDisplay:10.37,2013-11-18 10:03:00,
2013-11-18 05:04:00,59.7,57.7,29.39,SW,234,26.5,32.2,93,0.10,RA,OVC,0.19,WeatherDisplay:10.37,2013-11-18 10:04:00,
2013-11-18 05:07:00,60.0,57.7,29.39,SW,226,28.8,39.1,92,0.10,,OVC,0.19,WeatherDisplay:10.37,2013-11-18 10:07:00,
2013-11-18 05:08:00,60.1,57.5,29.39,SW,229,28.3,34.5,91,0.09,,OVC,0.19,WeatherDisplay:10.37,2013-11-18 10:08:00,
2013-11-18 05:09:00,60.1,57.2,29.39,SW,230,28.4,34.5,90,0.09,,OVC,0.19,WeatherDisplay:10.37,2013-11-18 10:09:00,
2013-11-18 05:10:00,60.1,57.2,29.39,SW,224,26.9,34.5,90,0.09,,OVC,0.19,WeatherDisplay:10.37,2013-11-18 10:10:00,
2013-11-18 05:12:00,60.1,56.2,29.39,WSW,239,24.3,33.4,87,0.09,CLR,OVC,0.19,WeatherDisplay:10.37,2013-11-18 10:12:00,
2013-11-18 05:13:00,60.1,55.9,29.39,SW,234,25.0,38.0,86,0.09,CLR,OVC,0.19,WeatherDisplay:10.37,2013-11-18 10:13:00,
2013-11-18 05:14:00,60.1,55.9,29.40,SW,233,20.9,31.1,86,0.08,CLR,OVC,0.19,WeatherDisplay:10.37,2013-11-18 10:14:00,
2013-11-18 05:15:00,60.1,55.9,29.39,SW,236,19.8,24.2,86,0.08,CLR,OVC,0.19,WeatherDisplay:10.37,2013-11-18 10:15:00,
2013-11-18 05:18:00,59.9,55.1,29.39,SW,229,19.6,36.8,84,0.08,CLR,OVC,0.19,WeatherDisplay:10.37,2013-11-18 10:18:00,
2013-11-18 05:19:00,59.9,55.1,29.39,SW,223,19.1,25.3,84,0.08,CLR,OVC,0.19,WeatherDisplay:10.37,2013-11-18 10:19:00,
2013-11-18 05:20:00,59.8,55.0,29.39,SW,229,19.2,25.3,84,0.08,CLR,OVC,0.19,WeatherDisplay:10.37,2013-11-18 10:20:00,
2013-11-18 05:23:00,59.4,54.6,29.39,SW,217,17.4,23.0,84,0.08,CLR,OVC,0.19,WeatherDisplay:10.37,2013-11-18 10:23:00,
2013-11-18 05:24:00,59.2,54.7,29.39,SW,225,18.0,25.3,85,0.08,CLR,OVC,0.19,WeatherDisplay:10.37,2013-11-18 10:24:00,
2013-11-18 05:25:00,59.1,54.3,29.39,SW,220,21.0,25.3,84,0.08,CLR,OVC,0.19,WeatherDisplay:10.37,2013-11-18 10:25:00,
2013-11-18 05:28:00,58.9,54.4,29.39,SW,230,21.3,29.9,85,0.08,CLR,OVC,0.19,WeatherDisplay:10.37,2013-11-18 10:28:00,
2013-11-18 05:29:00,58.8,54.0,29.39,SW,220,19.5,29.9,84,0.08,CLR,OVC,0.19,WeatherDisplay:10.37,2013-11-18 10:29:00,
2013-11-18 05:30:00,58.7,53.9,29.39,SW,227,21.1,29.0,84,0.08,CLR,OVC,0.19,WeatherDisplay:10.37,2013-11-18 10:30:00,
2013-11-18 05:31:00,58.7,54.2,29.38,SW,219,21.7,28.8,85,0.08,CLR,OVC,0.19,WeatherDisplay:10.37,2013-11-18 10:31:00,
2013-11-18 05:34:00,58.5,54.0,29.39,SW,216,18.7,32.2,85,0.09,RA,OVC,0.20,WeatherDisplay:10.37,2013-11-18 10:34:00,
2013-11-18 05:35:00,58.4,53.9,29.38,SW,222,17.0,20.7,85,0.08,RA,OVC,0.20,WeatherDisplay:10.37,2013-11-18 10:35:00,
2013-11-18 05:36:00,58.4,54.2,29.38,WSW,239,21.9,29.9,86,0.08,RA,OVC,0.20,WeatherDisplay:10.37,2013-11-18 10:36:00,
2013-11-18 05:39:00,58.4,54.3,29.37,SW,219,16.0,30.0,86,0.00,RA,OVC,0.20,WeatherDisplay:10.37,2013-11-18 10:39:00,
2013-11-18 05:40:00,58.5,54.3,29.38,SSW,197,15.8,24.2,86,0.08,RA,OVC,0.20,WeatherDisplay:10.37,2013-11-18 10:40:00,
2013-11-18 05:41:00,58.5,54.3,29.38,SSW,195,14.6,20.7,86,0.08,RA,OVC,0.20,WeatherDisplay:10.37,2013-11-18 10:41:00,
2013-11-18 05:45:00,58.3,54.1,29.39,South,187,16.8,23.0,86,0.08,CLR,OVC,0.20,WeatherDisplay:10.37,2013-11-18 10:45:00,
2013-11-18 05:46:00,58.2,53.7,29.39,SSW,201,20.4,27.6,85,0.07,CLR,OVC,0.20,WeatherDisplay:10.37,2013-11-18 10:46:00,
2013-11-18 05:50:00,58.0,53.5,29.40,SSW,199,16.3,20.7,85,0.07,CLR,OVC,0.20,WeatherDisplay:10.37,2013-11-18 10:50:00,
2013-11-18 05:51:00,57.9,53.4,29.40,SSW,199,17.1,23.0,85,0.07,CLR,OVC,0.20,WeatherDisplay:10.37,2013-11-18 10:51:00,
2013-11-18 05:55:00,57.8,53.3,29.41,SSW,204,15.1,21.9,85,0.02,CLR,OVC,0.20,WeatherDisplay:10.37,2013-11-18 10:55:00,
2013-11-18 05:56:00,57.8,53.3,29.41,SSW,197,14.4,19.6,85,0.01,CLR,OVC,0.20,WeatherDisplay:10.37,2013-11-18 10:56:00,
2013-11-18 06:00:00,57.7,53.9,29.39,SSE,164,13.1,20.7,87,0.01,CLR,OVC,0.20,WeatherDisplay:10.37,2013-11-18 11:00:00,
2013-11-18 06:01:00,57.7,53.9,29.39,SSE,168,12.5,15.0,87,0.01,CLR,OVC,0.20,WeatherDisplay:10.37,2013-11-18 11:01:00,
2013-11-18 06:02:00,57.7,53.9,29.40,South,174,12.3,19.6,87,0.01,CLR,OVC,0.20,WeatherDisplay:10.37,2013-11-18 11:02:00,
2013-11-18 06:06:00,57.6,53.8,29.41,South,186,12.1,19.6,87,0.01,CLR,OVC,0.20,WeatherDisplay:10.37,2013-11-18 11:06:00,
2013-11-18 06:07:00,57.6,53.8,29.42,South,191,11.1,18.4,87,0.01,CLR,OVC,0.20,WeatherDisplay:10.37,2013-11-18 11:07:00,
2013-11-18 06:11:00,57.6,53.8,29.40,SSE,158,15.0,25.3,87,0.01,CLR,OVC,0.20,WeatherDisplay:10.37,2013-11-18 11:11:00,
2013-11-18 06:12:00,57.6,53.8,29.40,SSE,158,16.4,19.6,87,0.01,CLR,OVC,0.20,WeatherDisplay:10.37,2013-11-18 11:12:00,
2013-11-18 06:13:00,57.6,53.8,29.39,SSE,160,17.3,23.0,87,0.01,CLR,OVC,0.20,WeatherDisplay:10.37,2013-11-18 11:13:00,
2013-11-18 06:16:00,57.6,53.8,29.40,South,189,15.3,19.6,87,0.01,CLR,OVC,0.20,WeatherDisplay:10.37,2013-11-18 11:16:00,
2013-11-18 06:17:00,57.6,53.8,29.40,South,186,14.1,18.4,87,0.01,CLR,OVC,0.20,WeatherDisplay:10.37,2013-11-18 11:17:00,
2013-11-18 06:18:00,57.6,53.8,29.41,South,177,13.5,24.2,87,0.01,CLR,OVC,0.20,WeatherDisplay:10.37,2013-11-18 11:18:00,
2013-11-18 06:21:00,57.6,53.8,29.41,SSE,165,13.1,19.6,87,0.01,CLR,OVC,0.20,WeatherDisplay:10.37,2013-11-18 11:21:00,
2013-11-18 06:22:00,57.6,53.8,29.41,South,182,13.8,22.0,87,0.01,CLR,OVC,0.20,WeatherDisplay:10.37,2013-11-18 11:22:00,
2013-11-18 06:23:00,57.7,53.9,29.41,South,182,14.6,21.9,87,0.01,CLR,OVC,0.20,WeatherDisplay:10.37,2013-11-18 11:23:00,
2013-11-18 06:26:00,57.8,54.3,29.40,South,169,12.2,20.7,88,0.01,CLR,OVC,0.20,WeatherDisplay:10.37,2013-11-18 11:26:00,
2013-11-18 06:27:00,57.7,54.2,29.41,South,182,13.6,20.7,88,0.01,CLR,OVC,0.20,WeatherDisplay:10.37,2013-11-18 11:27:00,
2013-11-18 06:28:00,57.7,54.2,29.41,South,174,12.4,19.6,88,0.01,CLR,OVC,0.20,WeatherDisplay:10.37,2013-11-18 11:28:00,
2013-11-18 06:29:00,57.8,54.3,29.41,South,170,11.6,17.3,88,0.01,CLR,OVC,0.20,WeatherDisplay:10.37,2013-11-18 11:29:00,
2013-11-18 06:31:00,57.7,54.2,29.40,South,173,11.6,20.7,88,0.01,CLR,OVC,0.20,WeatherDisplay:10.37,2013-11-18 11:31:00,
2013-11-18 06:32:00,57.7,54.5,29.41,South,181,11.1,15.0,89,0.00,CLR,OVC,0.20,WeatherDisplay:10.37,2013-11-18 11:32:00,
2013-11-18 06:33:00,57.7,54.2,29.41,South,176,15.7,22.0,88,0.00,CLR,OVC,0.20,WeatherDisplay:10.37,2013-11-18 11:33:00,
2013-11-18 06:34:00,57.7,54.5,29.42,SSW,201,14.9,21.9,89,0.00,CLR,OVC,0.20,WeatherDisplay:10.37,2013-11-18 11:34:00,
2013-11-18 06:36:00,57.6,54.4,29.41,South,174,10.1,19.6,89,0.00,CLR,OVC,0.20,WeatherDisplay:10.37,2013-11-18 11:36:00,
2013-11-18 06:37:00,57.6,54.4,29.41,SSW,195,11.3,15.0,89,0.00,CLR,OVC,0.20,WeatherDisplay:10.37,2013-11-18 11:37:00,
2013-11-18 06:38:00,57.6,54.4,29.41,SSE,150,11.8,15.0,89,0.00,CLR,OVC,0.20,WeatherDisplay:10.37,2013-11-18 11:38:00,
2013-11-18 06:39:00,57.6,54.4,29.41,South,174,12.9,19.6,89,0.00,CLR,OVC,0.20,WeatherDisplay:10.37,2013-11-18 11:39:00,
2013-11-18 06:40:00,57.5,54.3,29.41,South,175,11.9,20.0,89,0.00,CLR,OVC,0.20,WeatherDisplay:10.37,2013-11-18 11:40:00,
2013-11-18 06:41:00,57.5,54.6,29.41,SSW,203,9.7,19.6,90,0.00,CLR,OVC,0.20,WeatherDisplay:10.37,2013-11-18 11:41:00,
2013-11-18 06:42:00,57.5,54.6,29.41,South,182,10.1,15.0,90,0.00,CLR,OVC,0.20,WeatherDisplay:10.37,2013-11-18 11:42:00,
2013-11-18 06:43:00,57.6,54.4,29.41,South,169,14.5,18.4,89,0.00,CLR,OVC,0.20,WeatherDisplay:10.37,2013-11-18 11:43:00,
2013-11-18 06:44:00,57.5,54.3,29.41,South,173,12.9,20.7,89,0.00,CLR,OVC,0.20,WeatherDisplay:10.37,2013-11-18 11:44:00,
2013-11-18 06:45:00,57.5,54.3,29.41,South,191,13.6,21.9,89,0.00,CLR,OVC,0.20,WeatherDisplay:10.37,2013-11-18 11:45:00,
2013-11-18 06:47:00,57.5,54.6,29.42,South,170,16.1,24.2,90,0.00,CLR,OVC,0.20,WeatherDisplay:10.37,2013-11-18 11:47:00,
2013-11-18 06:48:00,57.6,54.7,29.42,SSE,159,14.9,23.0,90,0.00,CLR,OVC,0.20,WeatherDisplay:10.37,2013-11-18 11:48:00,
2013-11-18 06:49:00,57.6,54.7,29.42,South,179,14.3,19.6,90,0.00,CLR,OVC,0.20,WeatherDisplay:10.37,2013-11-18 11:49:00,
2013-11-18 06:51:00,57.6,54.7,29.42,South,190,12.9,19.6,90,0.00,CLR,OVC,0.20,WeatherDisplay:10.37,2013-11-18 11:51:00,
2013-11-18 06:52:00,57.5,54.6,29.42,South,188,14.0,24.0,90,0.00,CLR,OVC,0.20,WeatherDisplay:10.37,2013-11-18 11:52:00,
2013-11-18 06:53:00,57.6,54.7,29.41,SSW,194,12.0,24.2,90,0.00,CLR,OVC,0.20,WeatherDisplay:10.37,2013-11-18 11:53:00,
2013-11-18 06:54:00,57.5,54.6,29.42,South,178,13.2,16.1,90,0.00,CLR,OVC,0.20,WeatherDisplay:10.37,2013-11-18 11:54:00,
2013-11-18 06:57:00,57.5,54.9,29.42,South,178,17.5,24.2,91,0.00,CLR,OVC,0.20,WeatherDisplay:10.37,2013-11-18 11:57:00,
2013-11-18 06:59:00,57.5,54.6,29.41,SSE,152,14.0,19.6,90,0.00,CLR,OVC,0.20,WeatherDisplay:10.37,2013-11-18 11:59:00,
2013-11-18 07:00:00,57.4,54.8,29.41,SSW,200,13.9,17.3,91,0.00,CLR,OVC,0.20,WeatherDisplay:10.37,2013-11-18 12:00:00,
2013-11-18 07:02:00,57.4,54.8,29.42,SSE,157,13.2,21.9,91,0.00,CLR,OVC,0.20,WeatherDisplay:10.37,2013-11-18 12:02:00,
2013-11-18 07:04:00,57.3,54.7,29.42,SSW,200,11.1,19.6,91,0.00,CLR,OVC,0.20,WeatherDisplay:10.37,2013-11-18 12:04:00,
2013-11-18 07:05:00,57.3,54.7,29.42,SSW,211,14.1,19.0,91,0.00,CLR,OVC,0.20,WeatherDisplay:10.37,2013-11-18 12:05:00,
2013-11-18 07:07:00,57.2,54.6,29.42,SSW,209,14.1,25.3,91,0.00,CLR,OVC,0.20,WeatherDisplay:10.37,2013-11-18 12:07:00,
2013-11-18 07:09:00,57.0,54.7,29.42,SW,229,11.8,15.0,92,0.00,CLR,OVC,0.20,WeatherDisplay:10.37,2013-11-18 12:09:00,
2013-11-18 07:10:00,57.0,54.7,29.42,SW,228,12.5,16.1,92,0.00,CLR,OVC,0.20,WeatherDisplay:10.37,2013-11-18 12:10:00,
2013-11-18 07:13:00,56.7,54.4,29.42,SW,220,14.8,19.6,92,0.00,CLR,OVC,0.20,WeatherDisplay:10.37,2013-11-18 12:13:00,
2013-11-18 07:14:00,56.5,54.5,29.43,SW,218,17.1,23.0,93,0.00,CLR,OVC,0.20,WeatherDisplay:10.37,2013-11-18 12:14:00,
2013-11-18 07:15:00,56.5,54.5,29.43,SSW,210,15.7,21.9,93,0.00,CLR,OVC,0.20,WeatherDisplay:10.37,2013-11-18 12:15:00,
2013-11-18 07:16:00,56.5,54.5,29.42,SW,217,15.4,19.6,93,0.00,CLR,OVC,0.20,WeatherDisplay:10.37,2013-11-18 12:16:00,
2013-11-18 07:18:00,56.3,54.3,29.42,SSW,202,13.8,19.6,93,0.00,CLR,OVC,0.20,WeatherDisplay:10.37,2013-11-18 12:18:00,
2013-11-18 07:19:00,56.2,54.2,29.42,SW,215,13.9,19.6,93,0.00,CLR,OVC,0.20,WeatherDisplay:10.37,2013-11-18 12:19:00,
2013-11-18 07:20:00,56.2,54.2,29.42,SSW,211,14.7,19.6,93,0.00,CLR,OVC,0.20,WeatherDisplay:10.37,2013-11-18 12:20:00,
2013-11-18 07:21:00,56.1,54.1,29.42,SSW,211,14.0,18.4,93,0.00,CLR,OVC,0.20,WeatherDisplay:10.37,2013-11-18 12:21:00,
2013-11-18 07:23:00,56.0,54.0,29.43,SW,220,14.3,21.9,93,0.00,CLR,OVC,0.20,WeatherDisplay:10.37,2013-11-18 12:23:00,
2013-11-18 07:24:00,56.0,54.0,29.43,SW,215,11.1,17.3,93,0.00,CLR,OVC,0.20,WeatherDisplay:10.37,2013-11-18 12:24:00,
2013-11-18 07:25:00,56.0,54.0,29.43,SW,215,11.1,17.3,93,0.00,CLR,OVC,0.20,WeatherDisplay:10.37,2013-11-18 12:25:00,
2013-11-18 07:26:00,55.9,53.9,29.43,SW,215,10.8,16.1,93,0.00,CLR,OVC,0.20,WeatherDisplay:10.37,2013-11-18 12:26:00,
2013-11-18 07:29:00,55.7,54.0,29.42,SW,219,13.2,19.6,94,0.00,CLR,OVC,0.20,WeatherDisplay:10.37,2013-11-18 12:29:00,
2013-11-18 07:30:00,55.7,54.0,29.43,SW,220,12.8,17.3,94,0.00,CLR,OVC,0.20,WeatherDisplay:10.37,2013-11-18 12:30:00,
2013-11-18 07:31:00,55.6,53.9,29.42,SW,215,11.8,17.3,94,0.00,CLR,OVC,0.20,WeatherDisplay:10.37,2013-11-18 12:31:00,
2013-11-18 07:32:00,55.6,53.9,29.43,SSW,213,11.4,15.0,94,0.00,CLR,OVC,0.20,WeatherDisplay:10.37,2013-11-18 12:32:00,
2013-11-18 07:34:00,55.5,53.8,29.43,SSW,207,11.5,13.8,94,0.00,CLR,OVC,0.20,WeatherDisplay:10.37,2013-11-18 12:34:00,
2013-11-18 07:35:00,55.5,53.8,29.43,SW,214,10.9,12.7,94,0.00,CLR,OVC,0.20,WeatherDisplay:10.37,2013-11-18 12:35:00,
2013-11-18 07:36:00,55.5,53.8,29.43,SW,218,12.2,17.3,94,0.00,CLR,OVC,0.20,WeatherDisplay:10.37,2013-11-18 12:36:00,
2013-11-18 07:37:00,55.4,53.7,29.43,SSW,202,11.8,17.3,94,0.00,CLR,OVC,0.20,WeatherDisplay:10.37,2013-11-18 12:37:00,
2013-11-18 07:39:00,55.4,53.7,29.43,South,183,11.8,16.1,94,0.00,CLR,OVC,0.20,WeatherDisplay:10.37,2013-11-18 12:39:00,
2013-11-18 07:41:00,55.4,53.7,29.43,SSW,197,9.7,18.4,94,0.00,CLR,OVC,0.20,WeatherDisplay:10.37,2013-11-18 12:41:00,
2013-11-18 07:43:00,55.4,53.7,29.43,SSW,200,12.9,15.0,94,0.00,CLR,OVC,0.20,WeatherDisplay:10.37,2013-11-18 12:43:00,
2013-11-18 07:44:00,55.5,53.8,29.43,SSW,197,10.4,15.0,94,0.00,CLR,OVC,0.20,WeatherDisplay:10.37,2013-11-18 12:44:00,
2013-11-18 07:46:00,55.5,53.5,29.43,SW,225,9.8,13.8,93,0.00,CLR,OVC,0.20,WeatherDisplay:10.37,2013-11-18 12:46:00,
2013-11-18 07:48:00,55.5,53.5,29.43,SSW,198,9.5,12.7,93,0.00,CLR,OVC,0.20,WeatherDisplay:10.37,2013-11-18 12:48:00,
2013-11-18 07:49:00,55.4,53.4,29.43,SSW,210,10.2,17.3,93,0.00,CLR,OVC,0.20,WeatherDisplay:10.37,2013-11-18 12:49:00,
2013-11-18 07:51:00,55.4,53.4,29.43,SSW,193,8.9,12.7,93,0.00,CLR,OVC,0.20,WeatherDisplay:10.37,2013-11-18 12:51:00,
2013-11-18 07:52:00,55.4,53.4,29.43,SW,215,10.2,13.8,93,0.00,CLR,OVC,0.20,WeatherDisplay:10.37,2013-11-18 12:52:00,
2013-11-18 07:53:00,55.3,53.0,29.43,SW,221,12.0,17.3,92,0.00,CLR,OVC,0.20,WeatherDisplay:10.37,2013-11-18 12:53:00,
2013-11-18 07:55:00,55.3,53.0,29.43,SW,229,13.1,17.3,92,0.00,CLR,OVC,0.20,WeatherDisplay:10.37,2013-11-18 12:55:00,
2013-11-18 07:56:00,55.3,53.0,29.43,SSW,199,11.5,15.0,92,0.00,CLR,OVC,0.20,WeatherDisplay:10.37,2013-11-18 12:56:00,
2013-11-18 07:57:00,55.3,53.0,29.43,South,184,11.9,15.0,92,0.00,CLR,OVC,0.20,WeatherDisplay:10.37,2013-11-18 12:57:00,
2013-11-18 07:58:00,55.3,52.7,29.44,SW,224,9.6,12.7,91,0.00,CLR,OVC,0.20,WeatherDisplay:10.37,2013-11-18 12:58:00,
2013-11-18 08:00:00,55.3,52.4,29.44,SW,220,10.1,17.0,90,0.00,CLR,OVC,0.20,WeatherDisplay:10.37,2013-11-18 13:00:00,
2013-11-18 08:01:00,55.3,52.4,29.44,SSW,203,11.8,19.6,90,0.00,CLR,OVC,0.20,WeatherDisplay:10.37,2013-11-18 13:01:00,
2013-11-18 08:02:00,55.3,52.4,29.44,SSW,200,10.3,15.0,90,0.00,CLR,OVC,0.20,WeatherDisplay:10.37,2013-11-18 13:02:00,
2013-11-18 08:04:00,55.4,52.2,29.44,SSW,210,9.0,12.7,89,0.00,CLR,OVC,0.20,WeatherDisplay:10.37,2013-11-18 13:04:00,
2013-11-18 08:05:00,55.4,52.5,29.44,SW,223,9.1,13.0,90,0.00,CLR,OVC,0.20,WeatherDisplay:10.37,2013-11-18 13:05:00,
2013-11-18 08:06:00,55.5,52.6,29.44,SW,216,9.4,13.8,90,0.00,CLR,OVC,0.20,WeatherDisplay:10.37,2013-11-18 13:06:00,
2013-11-18 08:07:00,55.5,52.3,29.44,SW,217,8.8,11.5,89,0.00,CLR,OVC,0.20,WeatherDisplay:10.37,2013-11-18 13:07:00,
2013-11-18 08:10:00,55.5,52.3,29.44,SSW,204,7.4,10.4,89,0.00,CLR,OVC,0.20,WeatherDisplay:10.37,2013-11-18 13:10:00,
2013-11-18 08:11:00,55.6,52.4,29.45,SW,214,7.8,9.2,89,0.00,CLR,OVC,0.20,WeatherDisplay:10.37,2013-11-18 13:11:00,
2013-11-18 08:12:00,55.6,52.4,29.44,SSW,210,7.4,9.2,89,0.00,CLR,OVC,0.20,WeatherDisplay:10.37,2013-11-18 13:12:00,
2013-11-18 08:15:00,55.6,52.4,29.44,SSW,212,9.2,12.7,89,0.00,CLR,OVC,0.20,WeatherDisplay:10.37,2013-11-18 13:15:00,
2013-11-18 08:16:00,55.7,52.5,29.44,SSW,197,10.1,15.0,89,0.00,CLR,OVC,0.20,WeatherDisplay:10.37,2013-11-18 13:16:00,
2013-11-18 08:17:00,55.7,52.5,29.44,South,184,8.8,11.5,89,0.00,CLR,OVC,0.20,WeatherDisplay:10.37,2013-11-18 13:17:00,
2013-11-18 08:19:00,55.8,52.6,29.44,SW,219,11.3,12.7,89,0.00,CLR,OVC,0.20,WeatherDisplay:10.37,2013-11-18 13:19:00,
2013-11-18 08:20:00,55.8,52.3,29.44,SSW,197,10.8,15.0,88,0.00,CLR,OVC,0.20,WeatherDisplay:10.37,2013-11-18 13:20:00,
2013-11-18 08:21:00,55.9,52.4,29.44,SSW,209,10.2,12.7,88,0.00,CLR,OVC,0.20,WeatherDisplay:10.37,2013-11-18 13:21:00,
2013-11-18 08:22:00,56.0,52.5,29.44,SSW,196,10.4,12.7,88,0.00,CLR,OVC,0.20,WeatherDisplay:10.37,2013-11-18 13:22:00,
2013-11-18 08:25:00,56.2,52.1,29.44,SSW,213,14.5,21.9,86,0.00,CLR,OVC,0.20,WeatherDisplay:10.37,2013-11-18 13:25:00,
2013-11-18 08:26:00,56.2,52.1,29.44,SW,216,9.6,16.1,86,0.00,CLR,OVC,0.20,WeatherDisplay:10.37,2013-11-18 13:26:00,
2013-11-18 08:27:00,56.2,52.1,29.44,SW,215,10.3,15.0,86,0.00,CLR,OVC,0.20,WeatherDisplay:10.37,2013-11-18 13:27:00,
2013-11-18 08:30:00,56.2,51.7,29.45,SW,231,15.5,19.6,85,0.00,CLR,OVC,0.20,WeatherDisplay:10.37,2013-11-18 13:30:00,
2013-11-18 08:31:00,56.3,51.2,29.44,West,266,13.0,19.6,83,0.00,CLR,OVC,0.20,WeatherDisplay:10.37,2013-11-18 13:31:00,
2013-11-18 08:32:00,56.3,50.9,29.45,SW,227,11.6,16.1,82,0.00,CLR,OVC,0.20,WeatherDisplay:10.37,2013-11-18 13:32:00,
2013-11-18 08:33:00,56.4,51.0,29.45,SW,224,11.9,16.1,82,0.00,CLR,OVC,0.20,WeatherDisplay:10.37,2013-11-18 13:33:00,
2013-11-18 08:35:00,56.6,51.2,29.45,SW,227,16.2,21.9,82,0.00,CLR,OVC,0.20,WeatherDisplay:10.37,2013-11-18 13:35:00,
2013-11-18 08:36:00,56.8,51.4,29.45,SW,226,12.5,21.9,82,0.00,CLR,OVC,0.20,WeatherDisplay:10.37,2013-11-18 13:36:00,
2013-11-18 08:37:00,56.9,51.5,29.45,SW,225,15.0,17.0,82,0.00,CLR,OVC,0.20,WeatherDisplay:10.37,2013-11-18 13:37:00,
2013-11-18 08:38:00,56.9,51.1,29.45,SW,231,12.7,19.6,81,0.00,CLR,OVC,0.20,WeatherDisplay:10.37,2013-11-18 13:38:00,
2013-11-18 08:40:00,57.0,51.2,29.45,SSW,199,12.6,19.6,81,0.00,CLR,OVC,0.20,WeatherDisplay:10.37,2013-11-18 13:40:00,
2013-11-18 08:41:00,57.0,51.2,29.45,SSW,196,11.8,15.0,81,0.00,CLR,OVC,0.20,WeatherDisplay:10.37,2013-11-18 13:41:00,
2013-11-18 08:42:00,57.1,51.3,29.45,SW,223,11.7,15.0,81,0.00,CLR,OVC,0.20,WeatherDisplay:10.37,2013-11-18 13:42:00,
2013-11-18 08:43:00,57.1,51.3,29.45,SW,226,10.4,15.0,81,0.00,CLR,OVC,0.20,WeatherDisplay:10.37,2013-11-18 13:43:00,
2013-11-18 08:46:00,57.1,51.0,29.45,SW,218,8.7,11.5,80,0.00,CLR,OVC,0.20,WeatherDisplay:10.37,2013-11-18 13:46:00,
2013-11-18 08:47:00,56.9,51.1,29.45,WSW,247,8.4,11.5,81,0.00,CLR,OVC,0.20,WeatherDisplay:10.37,2013-11-18 13:47:00,
2013-11-18 08:48:00,56.9,51.1,29.45,WSW,245,8.1,11.5,81,0.00,CLR,OVC,0.20,WeatherDisplay:10.37,2013-11-18 13:48:00,
2013-11-18 08:49:00,56.8,50.7,29.46,WSW,238,11.4,16.1,80,0.00,CLR,OVC,0.20,WeatherDisplay:10.37,2013-11-18 13:49:00,
2013-11-18 08:51:00,56.7,50.3,29.46,WSW,247,14.7,20.7,79,0.00,CLR,OVC,0.20,WeatherDisplay:10.37,2013-11-18 13:51:00,
2013-11-18 08:52:00,56.7,49.9,29.46,SW,221,16.4,25.3,78,0.00,CLR,OVC,0.20,WeatherDisplay:10.37,2013-11-18 13:52:00,
2013-11-18 08:53:00,56.7,49.9,29.46,SW,228,16.3,19.6,78,0.00,CLR,OVC,0.20,WeatherDisplay:10.37,2013-11-18 13:53:00,
2013-11-18 08:54:00,56.6,49.8,29.46,WSW,252,16.6,20.7,78,0.00,CLR,OVC,0.20,WeatherDisplay:10.37,2013-11-18 13:54:00,
2013-11-18 08:56:00,56.6,49.8,29.47,WSW,241,13.2,16.1,78,0.00,CLR,OVC,0.20,WeatherDisplay:10.37,2013-11-18 13:56:00,
2013-11-18 08:57:00,56.6,49.5,29.47,WSW,239,12.2,16.1,77,0.00,CLR,OVC,0.20,WeatherDisplay:10.37,2013-11-18 13:57:00,
2013-11-18 08:58:00,56.6,49.5,29.47,SW,231,12.0,15.0,77,0.00,CLR,OVC,0.20,WeatherDisplay:10.37,2013-11-18 13:58:00,
2013-11-18 08:59:00,56.5,49.4,29.46,WSW,257,11.6,17.3,77,0.00,CLR,OVC,0.20,WeatherDisplay:10.37,2013-11-18 13:59:00,
2013-11-18 09:01:00,56.4,49.3,29.47,WSW,248,15.5,17.3,77,0.00,CLR,OVC,0.20,WeatherDisplay:10.37,2013-11-18 14:01:00,
2013-11-18 09:03:00,56.4,49.3,29.47,SW,234,15.8,19.6,77,0.00,CLR,OVC,0.20,WeatherDisplay:10.37,2013-11-18 14:03:00,
2013-11-18 09:04:00,56.3,49.2,29.47,WSW,237,15.4,20.7,77,0.00,CLR,OVC,0.20,WeatherDisplay:10.37,2013-11-18 14:04:00,
2013-11-18 09:07:00,56.3,48.8,29.47,WSW,246,15.1,20.7,76,0.00,CLR,OVC,0.20,WeatherDisplay:10.37,2013-11-18 14:07:00,
2013-11-18 09:08:00,56.3,49.2,29.46,SW,234,12.8,15.0,77,0.00,CLR,OVC,0.20,WeatherDisplay:10.37,2013-11-18 14:08:00,
2013-11-18 09:09:00,56.3,49.2,29.47,WSW,243,14.4,18.4,77,0.00,CLR,OVC,0.20,WeatherDisplay:10.37,2013-11-18 14:09:00,
2013-11-18 09:12:00,56.2,49.1,29.46,WSW,258,12.6,19.6,77,0.00,CLR,OVC,0.20,WeatherDisplay:10.37,2013-11-18 14:12:00,
2013-11-18 09:13:00,56.2,48.7,29.46,SW,221,13.1,20.0,76,0.00,CLR,OVC,0.20,WeatherDisplay:10.37,2013-11-18 14:13:00,
2013-11-18 09:14:00,56.2,48.4,29.47,SW,226,14.5,19.6,75,0.00,CLR,OVC,0.20,WeatherDisplay:10.37,2013-11-18 14:14:00,
2013-11-18 09:17:00,56.3,48.8,29.46,SW,229,14.2,20.7,76,0.00,CLR,OVC,0.20,WeatherDisplay:10.37,2013-11-18 14:17:00,
2013-11-18 09:18:00,56.3,48.8,29.47,SW,236,17.7,20.7,76,0.00,CLR,OVC,0.20,WeatherDisplay:10.37,2013-11-18 14:18:00,
2013-11-18 09:19:00,56.3,48.8,29.47,WSW,238,18.7,23.0,76,0.00,CLR,OVC,0.20,WeatherDisplay:10.37,2013-11-18 14:19:00,
2013-11-18 09:20:00,56.3,48.8,29.47,SW,229,16.0,23.0,76,0.00,CLR,OVC,0.20,WeatherDisplay:10.37,2013-11-18 14:20:00,
2013-11-18 09:22:00,56.1,49.0,29.46,SW,225,15.8,22.0,77,0.00,CLR,OVC,0.20,WeatherDisplay:10.37,2013-11-18 14:22:00,
2013-11-18 09:23:00,56.0,48.9,29.47,SW,218,14.2,22.0,77,0.00,CLR,OVC,0.20,WeatherDisplay:10.37,2013-11-18 14:23:00,
2013-11-18 09:24:00,56.0,48.9,29.47,SW,231,15.1,23.0,77,0.00,CLR,OVC,0.20,WeatherDisplay:10.37,2013-11-18 14:24:00,
2013-11-18 09:25:00,56.0,48.9,29.46,SW,228,16.2,23.0,77,0.00,CLR,OVC,0.20,WeatherDisplay:10.37,2013-11-18 14:25:00,
2013-11-18 09:27:00,55.9,48.8,29.47,SW,222,16.7,20.7,77,0.00,CLR,OVC,0.20,WeatherDisplay:10.37,2013-11-18 14:27:00,
2013-11-18 09:29:00,55.8,48.7,29.46,SW,224,19.9,25.3,77,0.00,CLR,OVC,0.20,WeatherDisplay:10.37,2013-11-18 14:29:00,
2013-11-18 09:30:00,55.8,48.7,29.47,SW,225,17.3,25.3,77,0.00,CLR,OVC,0.20,WeatherDisplay:10.37,2013-11-18 14:30:00,
2013-11-18 09:32:00,55.6,48.5,29.46,SW,226,14.3,24.2,77,0.00,CLR,OVC,0.20,WeatherDisplay:10.37,2013-11-18 14:32:00,
2013-11-18 09:34:00,55.6,48.5,29.46,SW,236,13.2,18.4,77,0.00,CLR,OVC,0.20,WeatherDisplay:10.37,2013-11-18 14:34:00,
2013-11-18 09:35:00,55.6,48.5,29.47,SW,236,11.5,16.1,77,0.00,CLR,OVC,0.20,WeatherDisplay:10.37,2013-11-18 14:35:00,
2013-11-18 09:36:00,55.5,48.4,29.47,WSW,242,10.6,11.5,77,0.00,CLR,OVC,0.20,WeatherDisplay:10.37,2013-11-18 14:36:00,
2013-11-18 09:37:00,55.5,48.4,29.47,SW,230,10.4,12.7,77,0.00,CLR,OVC,0.20,WeatherDisplay:10.37,2013-11-18 14:37:00,
2013-11-18 09:39:00,55.4,48.7,29.47,SW,216,12.6,19.6,78,0.00,CLR,OVC,0.20,WeatherDisplay:10.37,2013-11-18 14:39:00,
2013-11-18 09:40:00,55.4,48.7,29.47,SW,214,10.0,15.0,78,0.00,CLR,OVC,0.20,WeatherDisplay:10.37,2013-11-18 14:40:00,
2013-11-18 09:41:00,55.5,48.8,29.46,SSW,205,10.0,13.0,78,0.00,CLR,OVC,0.20,WeatherDisplay:10.37,2013-11-18 14:41:00,
2013-11-18 09:42:00,55.5,48.4,29.47,SSW,205,13.1,17.3,77,0.00,CLR,OVC,0.20,WeatherDisplay:10.37,2013-11-18 14:42:00,
2013-11-18 09:44:00,55.7,48.9,29.47,SSW,194,9.7,13.8,78,0.00,CLR,OVC,0.20,WeatherDisplay:10.37,2013-11-18 14:44:00,
2013-11-18 09:45:00,55.7,48.6,29.47,SW,218,10.1,12.7,77,0.00,CLR,OVC,0.20,WeatherDisplay:10.37,2013-11-18 14:45:00,
2013-11-18 09:46:00,55.8,49.0,29.47,SSW,210,10.1,12.7,78,0.00,CLR,OVC,0.20,WeatherDisplay:10.37,2013-11-18 14:46:00,
2013-11-18 09:47:00,55.8,48.7,29.47,SW,235,11.8,16.0,77,0.00,CLR,OVC,0.20,WeatherDisplay:10.37,2013-11-18 14:47:00,
2013-11-18 09:49:00,56.0,48.5,29.47,SW,234,17.1,20.7,76,0.00,CLR,OVC,0.20,WeatherDisplay:10.37,2013-11-18 14:49:00,
2013-11-18 09:50:00,56.0,48.2,29.47,SW,233,17.2,20.7,75,0.00,CLR,OVC,0.20,WeatherDisplay:10.37,2013-11-18 14:50:00,
2013-11-18 09:52:00,56.2,48.7,29.46,SW,219,10.4,13.0,76,0.00,CLR,OVC,0.20,WeatherDisplay:10.37,2013-11-18 14:52:00,
2013-11-18 09:55:00,56.4,48.9,29.47,SSW,204,7.7,10.4,76,0.00,CLR,OVC,0.20,WeatherDisplay:10.37,2013-11-18 14:55:00,
2013-11-18 09:56:00,56.4,48.9,29.47,SW,216,10.3,16.1,76,0.00,CLR,OVC,0.20,WeatherDisplay:10.37,2013-11-18 14:56:00,
2013-11-18 09:57:00,56.4,48.6,29.47,SW,217,13.8,19.6,75,0.00,CLR,OVC,0.20,WeatherDisplay:10.37,2013-11-18 14:57:00,
2013-11-18 10:00:00,56.4,48.6,29.47,WSW,239,12.3,16.1,75,0.00,CLR,OVC,0.20,WeatherDisplay:10.37,2013-11-18 15:00:00,
2013-11-18 10:01:00,56.4,48.6,29.47,SW,221,13.5,19.0,75,0.00,CLR,OVC,0.20,WeatherDisplay:10.37,2013-11-18 15:01:00,
2013-11-18 10:02:00,56.4,48.2,29.47,SW,218,14.3,19.6,74,0.00,CLR,OVC,0.20,WeatherDisplay:10.37,2013-11-18 15:02:00,
2013-11-18 10:05:00,56.4,48.6,29.47,SW,219,13.0,18.4,75,0.00,CLR,OVC,0.20,WeatherDisplay:10.37,2013-11-18 15:05:00,
2013-11-18 10:06:00,56.4,48.6,29.47,SW,223,12.5,18.4,75,0.00,CLR,OVC,0.20,WeatherDisplay:10.37,2013-11-18 15:06:00,
2013-11-18 10:07:00,56.4,48.2,29.47,WSW,238,16.6,18.4,74,0.00,CLR,OVC,0.20,WeatherDisplay:10.37,2013-11-18 15:07:00,
2013-11-18 10:10:00,56.3,48.5,29.48,SW,226,13.1,20.0,75,0.00,CLR,OVC,0.20,WeatherDisplay:10.37,2013-11-18 15:10:00,
2013-11-18 10:11:00,56.3,48.5,29.47,SW,223,15.8,19.6,75,0.00,CLR,OVC,0.20,WeatherDisplay:10.37,2013-11-18 15:11:00,
2013-11-18 10:12:00,56.2,48.4,29.47,SW,232,18.4,23.0,75,0.00,CLR,OVC,0.20,WeatherDisplay:10.37,2013-11-18 15:12:00,
2013-11-18 10:15:00,56.2,48.4,29.47,WSW,241,16.2,25.3,75,0.00,CLR,OVC,0.20,WeatherDisplay:10.37,2013-11-18 15:15:00,
2013-11-18 10:16:00,56.2,48.0,29.47,SW,235,15.5,20.7,74,0.00,CLR,OVC,0.20,WeatherDisplay:10.37,2013-11-18 15:16:00,
2013-11-18 10:17:00,56.2,48.4,29.47,SW,232,13.9,19.6,75,0.00,CLR,OVC,0.20,WeatherDisplay:10.37,2013-11-18 15:17:00,
2013-11-18 10:18:00,56.2,48.4,29.47,SW,227,13.8,18.4,75,0.00,CLR,OVC,0.20,WeatherDisplay:10.37,2013-11-18 15:18:00,
2013-11-18 10:21:00,56.2,48.0,29.48,WSW,247,18.7,24.2,74,0.00,CLR,OVC,0.20,WeatherDisplay:10.37,2013-11-18 15:21:00,
2013-11-18 10:22:00,56.2,48.0,29.48,WSW,240,18.6,24.2,74,0.00,CLR,OVC,0.20,WeatherDisplay:10.37,2013-11-18 15:22:00,
2013-11-18 10:23:00,56.2,48.0,29.48,SW,231,21.7,29.9,74,0.00,CLR,OVC,0.20,WeatherDisplay:10.37,2013-11-18 15:23:00,
2013-11-18 10:26:00,56.2,47.7,29.48,WSW,238,18.2,19.6,73,0.00,CLR,OVC,0.20,WeatherDisplay:10.37,2013-11-18 15:26:00,
2013-11-18 10:27:00,56.2,47.7,29.48,WSW,245,18.9,24.2,73,0.00,CLR,OVC,0.20,WeatherDisplay:10.37,2013-11-18 15:27:00,
2013-11-18 10:28:00,56.2,47.7,29.48,WSW,237,21.0,26.5,73,0.00,CLR,OVC,0.20,WeatherDisplay:10.37,2013-11-18 15:28:00,
2013-11-18 10:31:00,56.2,47.7,29.48,SW,232,18.1,26.5,73,0.00,CLR,OVC,0.20,WeatherDisplay:10.37,2013-11-18 15:31:00,
2013-11-18 10:32:00,56.1,47.6,29.48,SW,230,17.3,23.0,73,0.00,CLR,OVC,0.20,WeatherDisplay:10.37,2013-11-18 15:32:00,
2013-11-18 10:33:00,56.1,47.6,29.48,WSW,252,15.2,19.6,73,0.00,CLR,OVC,0.20,WeatherDisplay:10.37,2013-11-18 15:33:00,
2013-11-18 10:34:00,56.1,47.6,29.48,WSW,257,17.0,20.0,73,0.00,CLR,OVC,0.20,WeatherDisplay:10.37,2013-11-18 15:34:00,
2013-11-18 10:37:00,56.2,47.3,29.48,WSW,248,17.7,20.7,72,0.00,CLR,OVC,0.20,WeatherDisplay:10.37,2013-11-18 15:37:00,
2013-11-18 10:38:00,56.2,47.7,29.48,WSW,257,18.0,20.7,73,0.00,CLR,OVC,0.20,WeatherDisplay:10.37,2013-11-18 15:38:00,
2013-11-18 10:39:00,56.2,47.7,29.48,WSW,242,16.2,20.7,73,0.00,CLR,OVC,0.20,WeatherDisplay:10.37,2013-11-18 15:39:00,
2013-11-18 10:42:00,56.2,48.4,29.48,West,271,10.4,21.0,75,0.00,CLR,OVC,0.20,WeatherDisplay:10.37,2013-11-18 15:42:00,
2013-11-18 10:44:00,56.2,48.0,29.48,SW,226,13.3,16.1,74,0.00,CLR,OVC,0.20,WeatherDisplay:10.37,2013-11-18 15:44:00,
2013-11-18 10:47:00,56.5,48.3,29.47,West,261,9.9,12.0,74,0.00,CLR,OVC,0.20,WeatherDisplay:10.37,2013-11-18 15:47:00,
2013-11-18 10:48:00,56.6,48.4,29.48,West,262,10.2,12.7,74,0.00,CLR,OVC,0.20,WeatherDisplay:10.37,2013-11-18 15:48:00,
2013-11-18 10:49:00,56.7,48.5,29.47,WSW,237,8.0,12.0,74,0.00,CLR,OVC,0.20,WeatherDisplay:10.37,2013-11-18 15:49:00,
2013-11-18 10:51:00,57.1,48.9,29.47,SW,236,9.7,12.0,74,0.00,CLR,OVC,0.20,WeatherDisplay:10.37,2013-11-18 15:51:00,
2013-11-18 10:52:00,57.3,49.1,29.47,West,259,9.5,12.7,74,0.00,CLR,OVC,0.20,WeatherDisplay:10.37,2013-11-18 15:52:00,
2013-11-18 10:53:00,57.4,48.8,29.47,WSW,240,9.3,13.0,73,0.00,CLR,OVC,0.20,WeatherDisplay:10.37,2013-11-18 15:53:00,
2013-11-18 10:54:00,57.5,48.5,29.47,SW,229,12.2,19.6,72,0.00,CLR,OVC,0.20,WeatherDisplay:10.37,2013-11-18 15:54:00,
2013-11-18 10:56:00,57.9,48.6,29.47,WSW,256,13.7,19.6,71,0.00,CLR,OVC,0.20,WeatherDisplay:10.37,2013-11-18 15:56:00,
2013-11-18 10:57:00,58.0,48.3,29.47,WSW,245,11.9,16.1,70,0.00,CLR,OVC,0.20,WeatherDisplay:10.37,2013-11-18 15:57:00,
2013-11-18 10:58:00,58.0,48.6,29.47,WSW,244,13.0,18.4,71,0.00,CLR,OVC,0.20,WeatherDisplay:10.37,2013-11-18 15:58:00,
2013-11-18 10:59:00,58.0,48.3,29.47,WSW,254,13.1,16.1,70,0.00,CLR,OVC,0.20,WeatherDisplay:10.37,2013-11-18 15:59:00,
2013-11-18 11:02:00,58.3,48.6,29.47,SW,236,13.3,17.3,70,0.00,CLR,OVC,0.20,WeatherDisplay:10.37,2013-11-18 16:02:00,
2013-11-18 11:03:00,58.3,48.6,29.47,SW,235,13.0,17.3,70,0.00,CLR,OVC,0.20,WeatherDisplay:10.37,2013-11-18 16:03:00,
2013-11-18 11:04:00,58.4,49.0,29.48,WSW,253,12.8,17.3,71,0.00,CLR,OVC,0.20,WeatherDisplay:10.37,2013-11-18 16:04:00,
2013-11-18 11:08:00,58.6,48.5,29.47,WSW,244,15.6,20.7,69,0.00,CLR,OVC,0.20,WeatherDisplay:10.37,2013-11-18 16:08:00,
2013-11-18 11:09:00,58.7,47.8,29.48,West,260,17.6,20.7,67,0.00,CLR,OVC,0.20,WeatherDisplay:10.37,2013-11-18 16:09:00,
2013-11-18 11:10:00,58.6,48.1,29.47,West,278,17.4,20.7,68,0.00,CLR,OVC,0.20,WeatherDisplay:10.37,2013-11-18 16:10:00,
2013-11-18 11:13:00,58.8,47.9,29.47,West,267,19.6,25.3,67,0.00,CLR,OVC,0.20,WeatherDisplay:10.37,2013-11-18 16:13:00,
2013-11-18 11:14:00,58.8,47.9,29.47,WSW,252,18.2,25.3,67,0.00,CLR,OVC,0.20,WeatherDisplay:10.37,2013-11-18 16:14:00,
2013-11-18 11:15:00,58.8,47.9,29.47,SW,232,16.8,21.9,67,0.00,CLR,OVC,0.20,WeatherDisplay:10.37,2013-11-18 16:15:00,
2013-11-18 11:19:00,58.9,47.6,29.47,WSW,256,15.6,20.7,66,0.00,CLR,OVC,0.20,WeatherDisplay:10.37,2013-11-18 16:19:00,
2013-11-18 11:20:00,58.9,47.6,29.47,WSW,257,17.1,20.7,66,0.00,CLR,OVC,0.20,WeatherDisplay:10.37,2013-11-18 16:20:00,
2013-11-18 11:24:00,58.9,47.6,29.47,WSW,250,18.2,24.2,66,0.00,CLR,OVC,0.20,WeatherDisplay:10.37,2013-11-18 16:24:00,
2013-11-18 11:25:00,58.9,47.6,29.46,SW,236,14.6,19.6,66,0.00,CLR,OVC,0.20,WeatherDisplay:10.37,2013-11-18 16:25:00,
2013-11-18 11:26:00,59.0,48.1,29.46,WSW,243,11.8,17.3,67,0.00,CLR,OVC,0.20,WeatherDisplay:10.37,2013-11-18 16:26:00,
2013-11-18 11:29:00,59.0,47.2,29.46,WSW,250,16.4,26.5,65,0.00,CLR,OVC,0.20,WeatherDisplay:10.37,2013-11-18 16:29:00,
2013-11-18 11:30:00,59.0,47.2,29.46,WSW,247,14.1,20.7,65,0.00,CLR,OVC,0.20,WeatherDisplay:10.37,2013-11-18 16:30:00,
2013-11-18 11:31:00,59.0,46.8,29.46,WSW,248,21.9,21.9,64,0.00,CLR,OVC,0.20,WeatherDisplay:10.37,2013-11-18 16:31:00,
2013-11-18 11:34:00,59.0,47.2,29.46,WSW,248,16.3,19.6,65,0.00,CLR,OVC,0.20,WeatherDisplay:10.37,2013-11-18 16:34:00,
2013-11-18 11:35:00,59.0,47.2,29.46,WSW,253,14.5,19.6,65,0.00,CLR,OVC,0.20,WeatherDisplay:10.37,2013-11-18 16:35:00,
2013-11-18 11:36:00,58.9,47.2,29.46,West,260,15.2,22.0,65,0.00,CLR,OVC,0.20,WeatherDisplay:10.37,2013-11-18 16:36:00,
2013-11-18 11:37:00,59.0,47.2,29.46,West,266,15.8,23.0,65,0.00,CLR,OVC,0.20,WeatherDisplay:10.37,2013-11-18 16:37:00,
2013-11-18 11:39:00,59.2,46.6,29.46,WSW,255,14.4,24.2,63,0.00,CLR,OVC,0.20,WeatherDisplay:10.37,2013-11-18 16:39:00,
2013-11-18 11:40:00,59.2,47.0,29.45,WSW,257,13.3,17.3,64,0.00,CLR,OVC,0.20,WeatherDisplay:10.37,2013-11-18 16:40:00,
2013-11-18 11:41:00,59.3,46.7,29.45,West,264,17.5,24.2,63,0.00,CLR,OVC,0.20,WeatherDisplay:10.37,2013-11-18 16:41:00,
2013-11-18 11:42:00,59.2,47.0,29.46,WSW,245,15.7,21.9,64,0.00,CLR,OVC,0.20,WeatherDisplay:10.37,2013-11-18 16:42:00,
2013-11-18 11:44:00,59.4,48.0,29.46,WSW,249,14.5,20.7,66,0.00,CLR,OVC,0.20,WeatherDisplay:10.37,2013-11-18 16:44:00,
2013-11-18 11:45:00,59.4,48.4,29.46,WSW,241,13.5,18.4,67,0.00,CLR,OVC,0.20,WeatherDisplay:10.37,2013-11-18 16:45:00,
2013-11-18 11:46:00,59.5,48.5,29.46,WSW,256,13.9,16.1,67,0.00,CLR,OVC,0.20,WeatherDisplay:10.37,2013-11-18 16:46:00,
2013-11-18 11:48:00,59.5,48.1,29.46,WSW,248,13.6,17.3,66,0.00,CLR,OVC,0.20,WeatherDisplay:10.37,2013-11-18 16:48:00,
2013-11-18 11:49:00,59.5,46.9,29.46,WSW,244,17.0,20.0,63,0.00,CLR,OVC,0.20,WeatherDisplay:10.37,2013-11-18 16:49:00,
2013-11-18 11:50:00,59.3,46.7,29.46,WSW,251,18.6,21.0,63,0.00,CLR,OVC,0.20,WeatherDisplay:10.37,2013-11-18 16:50:00,
2013-11-18 11:51:00,59.3,46.7,29.46,WSW,247,17.3,20.7,63,0.00,CLR,OVC,0.20,WeatherDisplay:10.37,2013-11-18 16:51:00,
2013-11-18 11:53:00,59.3,47.1,29.46,West,262,15.6,20.7,64,0.00,CLR,OVC,0.20,WeatherDisplay:10.37,2013-11-18 16:53:00,
2013-11-18 11:54:00,59.1,46.5,29.46,WSW,247,16.0,21.0,63,0.00,CLR,OVC,0.20,WeatherDisplay:10.37,2013-11-18 16:54:00,
2013-11-18 11:55:00,58.9,45.9,29.46,WSW,255,16.1,20.7,62,0.00,CLR,OVC,0.20,WeatherDisplay:10.37,2013-11-18 16:55:00,
2013-11-18 11:56:00,58.9,45.9,29.46,WSW,248,18.7,20.7,62,0.00,CLR,OVC,0.20,WeatherDisplay:10.37,2013-11-18 16:56:00,
2013-11-18 11:59:00,58.5,46.4,29.46,WSW,241,13.0,18.4,64,0.00,CLR,OVC,0.20,WeatherDisplay:10.37,2013-11-18 16:59:00,
2013-11-18 12:00:00,58.3,46.2,29.46,WSW,251,13.0,16.0,64,0.00,CLR,OVC,0.20,WeatherDisplay:10.37,2013-11-18 17:00:00,
2013-11-18 12:01:00,58.2,46.5,29.46,WSW,252,13.1,19.6,65,0.00,CLR,OVC,0.20,WeatherDisplay:10.37,2013-11-18 17:01:00,
2013-11-18 12:02:00,58.1,46.4,29.46,WSW,256,11.3,16.1,65,0.00,CLR,OVC,0.20,WeatherDisplay:10.37,2013-11-18 17:02:00,
2013-11-18 12:04:00,57.8,46.1,29.46,SW,235,14.3,18.4,65,0.00,CLR,OVC,0.20,WeatherDisplay:10.37,2013-11-18 17:04:00,
2013-11-18 12:05:00,57.8,46.1,29.46,SW,235,14.3,18.4,65,0.00,CLR,OVC,0.20,WeatherDisplay:10.37,2013-11-18 17:05:00,
2013-11-18 12:06:00,57.6,45.9,29.46,WSW,251,17.4,25.0,65,0.00,CLR,OVC,0.20,WeatherDisplay:10.37,2013-11-18 17:06:00,
2013-11-18 12:07:00,57.6,45.9,29.46,West,264,18.6,25.3,65,0.00,CLR,OVC,0.20,WeatherDisplay:10.37,2013-11-18 17:07:00,
2013-11-18 12:08:00,57.5,45.4,29.47,WSW,240,20.2,29.9,64,0.00,CLR,OVC,0.20,WeatherDisplay:10.37,2013-11-18 17:08:00,
2013-11-18 12:10:00,57.3,45.2,29.47,WSW,256,18.4,21.9,64,0.00,CLR,OVC,0.20,WeatherDisplay:10.37,2013-11-18 17:10:00,
2013-11-18 12:12:00,57.2,45.1,29.47,WSW,257,19.6,28.8,64,0.00,CLR,OVC,0.20,WeatherDisplay:10.37,2013-11-18 17:12:00,
2013-11-18 12:13:00,57.2,44.7,29.47,WSW,242,18.7,28.8,63,0.00,CLR,OVC,0.20,WeatherDisplay:10.37,2013-11-18 17:13:00,
2013-11-18 12:15:00,57.2,44.7,29.46,West,262,16.8,21.9,63,0.00,CLR,OVC,0.20,WeatherDisplay:10.37,2013-11-18 17:15:00,
2013-11-18 12:16:00,57.2,44.7,29.47,West,270,17.5,21.9,63,0.00,CLR,OVC,0.20,WeatherDisplay:10.37,2013-11-18 17:16:00,
2013-11-18 12:17:00,57.2,44.7,29.47,WSW,255,15.0,19.6,63,0.00,CLR,OVC,0.20,WeatherDisplay:10.37,2013-11-18 17:17:00,
2013-11-18 12:18:00,57.2,45.1,29.47,WSW,247,13.9,19.6,64,0.00,CLR,OVC,0.20,WeatherDisplay:10.37,2013-11-18 17:18:00,
2013-11-18 12:20:00,57.2,44.7,29.47,West,272,17.0,24.2,63,0.00,CLR,OVC,0.20,WeatherDisplay:10.37,2013-11-18 17:20:00,
2013-11-18 12:21:00,57.3,44.8,29.47,West,263,15.0,24.2,63,0.00,CLR,OVC,0.20,WeatherDisplay:10.37,2013-11-18 17:21:00,
2013-11-18 12:22:00,57.4,45.3,29.47,West,259,11.6,19.6,64,0.00,CLR,OVC,0.20,WeatherDisplay:10.37,2013-11-18 17:22:00,
2013-11-18 12:23:00,57.5,45.4,29.47,West,259,12.5,15.0,64,0.00,CLR,OVC,0.20,WeatherDisplay:10.37,2013-11-18 17:23:00,
2013-11-18 12:24:00,57.5,45.4,29.47,West,259,12.5,16.1,64,0.00,CLR,OVC,0.20,WeatherDisplay:10.37,2013-11-18 17:24:00,
2013-11-18 12:25:00,57.7,45.6,29.47,West,269,11.9,17.3,64,0.00,CLR,OVC,0.20,WeatherDisplay:10.37,2013-11-18 17:25:00,
2013-11-18 12:26:00,57.8,45.7,29.47,WSW,258,12.3,17.3,64,0.00,CLR,OVC,0.20,WeatherDisplay:10.37,2013-11-18 17:26:00,
2013-11-18 12:27:00,57.8,45.7,29.47,West,263,12.4,17.0,64,0.00,CLR,OVC,0.20,WeatherDisplay:10.37,2013-11-18 17:27:00,
2013-11-18 12:29:00,58.1,46.0,29.47,WSW,250,15.4,18.4,64,0.00,CLR,OVC,0.20,WeatherDisplay:10.37,2013-11-18 17:29:00,
2013-11-18 12:31:00,58.2,45.2,29.47,WSW,240,16.1,28.0,62,0.00,CLR,OVC,0.20,WeatherDisplay:10.37,2013-11-18 17:31:00,
2013-11-18 12:32:00,58.3,45.8,29.47,WSW,257,21.6,27.6,63,0.00,CLR,OVC,0.20,WeatherDisplay:10.37,2013-11-18 17:32:00,
2013-11-18 12:35:00,58.7,46.1,29.47,WSW,243,16.7,20.7,63,0.00,CLR,OVC,0.20,WeatherDisplay:10.37,2013-11-18 17:35:00,
2013-11-18 12:36:00,58.8,46.2,29.48,WNW,288,17.4,23.0,63,0.00,CLR,OVC,0.20,WeatherDisplay:10.37,2013-11-18 17:36:00,
2013-11-18 12:37:00,59.0,46.4,29.48,West,261,15.7,23.0,63,0.00,CLR,OVC,0.20,WeatherDisplay:10.37,2013-11-18 17:37:00,
2013-11-18 12:38:00,59.1,46.5,29.48,West,263,15.3,19.6,63,0.00,CLR,OVC,0.20,WeatherDisplay:10.37,2013-11-18 17:38:00,
2013-11-18 12:40:00,59.3,46.7,29.48,WSW,252,19.2,23.0,63,0.00,CLR,OVC,0.20,WeatherDisplay:10.37,2013-11-18 17:40:00,
2013-11-18 12:41:00,59.4,46.4,29.48,WSW,248,16.8,28.8,62,0.00,CLR,OVC,0.20,WeatherDisplay:10.37,2013-11-18 17:41:00,
2013-11-18 12:42:00,59.5,46.5,29.48,West,269,13.0,19.6,62,0.00,CLR,OVC,0.20,WeatherDisplay:10.37,2013-11-18 17:42:00,
2013-11-18 12:43:00,59.6,47.0,29.48,West,275,14.3,18.4,63,0.00,CLR,OVC,0.20,WeatherDisplay:10.37,2013-11-18 17:43:00,
2013-11-18 12:45:00,59.7,46.2,29.48,West,267,17.3,23.0,61,0.00,CLR,OVC,0.20,WeatherDisplay:10.37,2013-11-18 17:45:00,
2013-11-18 12:46:00,59.8,46.3,29.48,West,274,16.8,20.0,61,0.00,CLR,OVC,0.20,WeatherDisplay:10.37,2013-11-18 17:46:00,
2013-11-18 12:48:00,59.8,46.7,29.48,West,277,14.0,17.3,62,0.00,CLR,OVC,0.20,WeatherDisplay:10.37,2013-11-18 17:48:00,
2013-11-18 12:51:00,59.8,46.3,29.48,West,279,18.2,25.3,61,0.00,CLR,OVC,0.20,WeatherDisplay:10.37,2013-11-18 17:51:00,
2013-11-18 12:52:00,59.7,45.8,29.48,West,261,16.5,26.5,60,0.00,CLR,OVC,0.20,WeatherDisplay:10.37,2013-11-18 17:52:00,
2013-11-18 12:53:00,59.7,45.8,29.48,West,277,15.5,19.6,60,0.00,CLR,OVC,0.20,WeatherDisplay:10.37,2013-11-18 17:53:00,
2013-11-18 12:54:00,59.7,46.2,29.48,West,267,12.8,19.6,61,0.00,CLR,OVC,0.20,WeatherDisplay:10.37,2013-11-18 17:54:00,
2013-11-18 12:56:00,59.6,47.0,29.48,WNW,298,9.2,15.0,63,0.00,CLR,OVC,0.20,WeatherDisplay:10.37,2013-11-18 17:56:00,
2013-11-18 12:57:00,59.6,46.6,29.48,WNW,300,12.1,16.1,62,0.00,CLR,OVC,0.20,WeatherDisplay:10.37,2013-11-18 17:57:00,
2013-11-18 12:58:00,59.5,46.5,29.48,WNW,291,11.6,15.0,62,0.00,CLR,OVC,0.20,WeatherDisplay:10.37,2013-11-18 17:58:00,
2013-11-18 12:59:00,59.4,46.4,29.48,WNW,285,13.0,16.1,62,0.00,CLR,OVC,0.20,WeatherDisplay:10.37,2013-11-18 17:59:00,
2013-11-18 13:01:00,59.0,46.4,29.48,West,272,11.9,19.6,63,0.00,CLR,OVC,0.20,WeatherDisplay:10.37,2013-11-18 18:01:00,
2013-11-18 13:02:00,59.0,46.4,29.48,West,273,14.1,18.4,63,0.00,CLR,OVC,0.20,WeatherDisplay:10.37,2013-11-18 18:02:00,
2013-11-18 13:03:00,58.9,45.9,29.48,West,277,15.3,19.6,62,0.00,CLR,OVC,0.20,WeatherDisplay:10.37,2013-11-18 18:03:00,
2013-11-18 13:04:00,58.7,46.1,29.48,West,270,12.0,19.6,63,0.00,CLR,OVC,0.20,WeatherDisplay:10.37,2013-11-18 18:04:00,
2013-11-18 13:06:00,58.3,45.8,29.48,WNW,283,13.6,19.6,63,0.00,CLR,OVC,0.20,WeatherDisplay:10.37,2013-11-18 18:06:00,
2013-11-18 13:07:00,58.2,45.7,29.49,West,280,10.9,18.4,63,0.00,CLR,OVC,0.20,WeatherDisplay:10.37,2013-11-18 18:07:00,
2013-11-18 13:08:00,58.1,46.0,29.49,West,275,11.8,16.1,64,0.00,CLR,OVC,0.20,WeatherDisplay:10.37,2013-11-18 18:08:00,
2013-11-18 13:09:00,57.9,45.8,29.48,WNW,283,12.9,17.3,64,0.00,CLR,OVC,0.20,WeatherDisplay:10.37,2013-11-18 18:09:00,
2013-11-18 13:12:00,57.7,45.6,29.49,WNW,283,12.1,19.6,64,0.00,CLR,OVC,0.20,WeatherDisplay:10.37,2013-11-18 18:12:00,
2013-11-18 13:13:00,57.7,45.6,29.49,West,275,11.9,15.0,64,0.00,CLR,OVC,0.20,WeatherDisplay:10.37,2013-11-18 18:13:00,
2013-11-18 13:14:00,57.5,45.4,29.49,West,278,11.4,16.1,64,0.00,CLR,OVC,0.20,WeatherDisplay:10.37,2013-11-18 18:14:00,
2013-11-18 13:17:00,57.3,45.6,29.49,West,273,12.2,19.6,65,0.00,CLR,OVC,0.20,WeatherDisplay:10.37,2013-11-18 18:17:00,
2013-11-18 13:18:00,57.3,45.6,29.49,West,273,12.1,16.1,65,0.00,CLR,OVC,0.20,WeatherDisplay:10.37,2013-11-18 18:18:00,
2013-11-18 13:19:00,57.4,46.5,29.49,West,260,11.2,12.7,67,0.00,CLR,OVC,0.20,WeatherDisplay:10.37,2013-11-18 18:19:00,
2013-11-18 13:23:00,57.9,46.2,29.49,West,272,11.3,16.1,65,0.00,CLR,OVC,0.20,WeatherDisplay:10.37,2013-11-18 18:23:00,
2013-11-18 13:24:00,57.9,45.8,29.49,WNW,286,11.7,17.3,64,0.00,CLR,OVC,0.20,WeatherDisplay:10.37,2013-11-18 18:24:00,
2013-11-18 13:28:00,58.0,45.5,29.49,West,263,14.5,19.6,63,0.00,CLR,OVC,0.20,WeatherDisplay:10.37,2013-11-18 18:28:00,
2013-11-18 13:29:00,58.0,45.9,29.50,West,273,14.0,19.6,64,0.00,CLR,OVC,0.20,WeatherDisplay:10.37,2013-11-18 18:29:00,
2013-11-18 13:30:00,58.0,45.5,29.49,West,280,13.8,19.6,63,0.00,CLR,OVC,0.20,WeatherDisplay:10.37,2013-11-18 18:30:00,
2013-11-18 13:33:00,57.6,45.5,29.50,West,266,12.3,19.6,64,0.00,CLR,OVC,0.20,WeatherDisplay:10.37,2013-11-18 18:33:00,
2013-11-18 13:34:00,57.5,45.4,29.50,WSW,250,10.9,18.4,64,0.00,CLR,OVC,0.20,WeatherDisplay:10.37,2013-11-18 18:34:00,
2013-11-18 13:35:00,57.4,45.7,29.50,West,276,10.5,18.4,65,0.00,CLR,OVC,0.20,WeatherDisplay:10.37,2013-11-18 18:35:00,
2013-11-18 13:38:00,56.9,45.3,29.50,WSW,249,13.0,16.1,65,0.00,CLR,OVC,0.20,WeatherDisplay:10.37,2013-11-18 18:38:00,
2013-11-18 13:39:00,56.9,44.8,29.50,West,262,12.9,16.1,64,0.00,CLR,OVC,0.20,WeatherDisplay:10.37,2013-11-18 18:39:00,
2013-11-18 13:40:00,56.8,44.7,29.50,West,281,12.2,18.4,64,0.00,CLR,OVC,0.20,WeatherDisplay:10.37,2013-11-18 18:40:00,
2013-11-18 13:43:00,56.6,44.1,29.50,WSW,257,14.6,18.4,63,0.00,CLR,OVC,0.20,WeatherDisplay:10.37,2013-11-18 18:43:00,
2013-11-18 13:44:00,56.5,44.0,29.50,West,276,14.9,18.4,63,0.00,CLR,OVC,0.20,WeatherDisplay:10.37,2013-11-18 18:44:00,
2013-11-18 13:45:00,56.5,44.0,29.50,West,267,14.0,16.1,63,0.00,CLR,OVC,0.20,WeatherDisplay:10.37,2013-11-18 18:45:00,
2013-11-18 13:49:00,56.3,44.3,29.50,WSW,249,11.1,16.1,64,0.00,CLR,OVC,0.20,WeatherDisplay:10.37,2013-11-18 18:49:00,
2013-11-18 13:50:00,56.4,44.4,29.50,WSW,253,11.5,15.0,64,0.00,CLR,OVC,0.20,WeatherDisplay:10.37,2013-11-18 18:50:00,
2013-11-18 13:51:00,56.5,44.9,29.50,WSW,256,10.8,15.0,65,0.00,CLR,OVC,0.20,WeatherDisplay:10.37,2013-11-18 18:51:00,
2013-11-18 13:54:00,56.8,44.3,29.50,West,271,15.3,19.6,63,0.00,CLR,OVC,0.20,WeatherDisplay:10.37,2013-11-18 18:54:00,
2013-11-18 13:55:00,56.9,44.4,29.50,WNW,285,13.0,19.6,63,0.00,CLR,OVC,0.20,WeatherDisplay:10.37,2013-11-18 18:55:00,
2013-11-18 13:56:00,56.9,44.4,29.50,West,280,11.5,16.1,63,0.00,CLR,OVC,0.20,WeatherDisplay:10.37,2013-11-18 18:56:00,
2013-11-18 13:59:00,57.2,45.1,29.50,WSW,254,11.1,12.7,64,0.00,CLR,OVC,0.20,WeatherDisplay:10.37,2013-11-18 18:59:00,
2013-11-18 14:00:00,57.2,45.1,29.50,West,275,11.4,15.0,64,0.00,CLR,OVC,0.20,WeatherDisplay:10.37,2013-11-18 19:00:00,
2013-11-18 14:01:00,57.3,44.8,29.50,West,262,12.6,18.4,63,0.00,CLR,OVC,0.20,WeatherDisplay:10.37,2013-11-18 19:01:00,
2013-11-18 14:04:00,57.0,44.1,29.50,West,266,12.3,18.4,62,0.00,CLR,OVC,0.20,WeatherDisplay:10.37,2013-11-18 19:04:00,
2013-11-18 14:05:00,56.9,44.0,29.51,West,271,12.1,16.1,62,0.00,CLR,OVC,0.20,WeatherDisplay:10.37,2013-11-18 19:05:00,
2013-11-18 14:06:00,56.9,44.0,29.51,West,273,12.0,16.1,62,0.00,CLR,OVC,0.20,WeatherDisplay:10.37,2013-11-18 19:06:00,
2013-11-18 14:07:00,56.8,43.9,29.51,West,274,11.7,15.0,62,0.00,CLR,OVC,0.20,WeatherDisplay:10.37,2013-11-18 19:07:00,
2013-11-18 14:09:00,56.4,43.5,29.51,WNW,289,13.4,24.2,62,0.00,CLR,OVC,0.20,WeatherDisplay:10.37,2013-11-18 19:09:00,
2013-11-18 14:11:00,56.3,43.4,29.51,West,274,10.2,15.0,62,0.00,CLR,OVC,0.20,WeatherDisplay:10.37,2013-11-18 19:11:00,
2013-11-18 14:12:00,56.2,43.3,29.51,West,273,9.9,12.0,62,0.00,CLR,OVC,0.20,WeatherDisplay:10.37,2013-11-18 19:12:00,
2013-11-18 14:14:00,55.9,43.5,29.51,West,272,13.3,19.6,63,0.00,CLR,OVC,0.20,WeatherDisplay:10.37,2013-11-18 19:14:00,
2013-11-18 14:16:00,55.8,43.4,29.51,West,268,12.1,16.1,63,0.00,CLR,OVC,0.20,WeatherDisplay:10.37,2013-11-18 19:16:00,
2013-11-18 14:17:00,55.8,43.0,29.51,West,276,12.7,18.0,62,0.00,CLR,OVC,0.20,WeatherDisplay:10.37,2013-11-18 19:17:00,
2013-11-18 14:20:00,55.7,42.9,29.51,West,260,11.5,19.6,62,0.00,CLR,OVC,0.20,WeatherDisplay:10.37,2013-11-18 19:20:00,
2013-11-18 14:21:00,55.7,42.9,29.51,WSW,251,12.0,17.3,62,0.00,CLR,OVC,0.20,WeatherDisplay:10.37,2013-11-18 19:21:00,
2013-11-18 14:22:00,55.6,42.8,29.51,WSW,241,11.9,17.3,62,0.00,CLR,OVC,0.20,WeatherDisplay:10.37,2013-11-18 19:22:00,
2013-11-18 14:23:00,55.6,42.8,29.51,WSW,248,13.4,17.3,62,0.00,CLR,OVC,0.20,WeatherDisplay:10.37,2013-11-18 19:23:00,
2013-11-18 14:25:00,55.6,43.2,29.51,WSW,239,12.7,15.0,63,0.00,CLR,OVC,0.20,WeatherDisplay:10.37,2013-11-18 19:25:00,
2013-11-18 14:26:00,55.6,43.2,29.51,WSW,237,11.1,16.1,63,0.00,CLR,OVC,0.20,WeatherDisplay:10.37,2013-11-18 19:26:00,
2013-11-18 14:27:00,55.6,43.2,29.51,WSW,240,12.3,15.0,63,0.00,CLR,OVC,0.20,WeatherDisplay:10.37,2013-11-18 19:27:00,
2013-11-18 14:30:00,55.8,43.8,29.51,WSW,238,12.9,17.3,64,0.00,CLR,OVC,0.20,WeatherDisplay:10.37,2013-11-18 19:30:00,
2013-11-18 14:31:00,56.0,43.6,29.51,WSW,240,13.4,16.1,63,0.00,CLR,OVC,0.20,WeatherDisplay:10.37,2013-11-18 19:31:00,
2013-11-18 14:32:00,56.1,43.7,29.52,WSW,240,13.7,18.0,63,0.00,CLR,OVC,0.20,WeatherDisplay:10.37,2013-11-18 19:32:00,
2013-11-18 14:33:00,56.1,43.7,29.51,WSW,237,15.1,18.4,63,0.00,CLR,OVC,0.20,WeatherDisplay:10.37,2013-11-18 19:33:00,
2013-11-18 14:35:00,56.4,44.0,29.51,SW,228,12.8,17.3,63,0.00,CLR,OVC,0.20,WeatherDisplay:10.37,2013-11-18 19:35:00,
2013-11-18 14:36:00,56.5,43.6,29.51,SW,236,13.9,17.3,62,0.00,CLR,OVC,0.20,WeatherDisplay:10.37,2013-11-18 19:36:00,
2013-11-18 14:37:00,56.6,44.1,29.51,WSW,253,12.0,16.1,63,0.00,CLR,OVC,0.20,WeatherDisplay:10.37,2013-11-18 19:37:00,
2013-11-18 14:38:00,56.6,43.7,29.51,SW,235,10.6,12.7,62,0.00,CLR,OVC,0.20,WeatherDisplay:10.37,2013-11-18 19:38:00,
2013-11-18 14:40:00,56.7,44.2,29.51,SW,232,11.3,12.0,63,0.00,CLR,OVC,0.20,WeatherDisplay:10.37,2013-11-18 19:40:00,
2013-11-18 14:41:00,56.7,44.2,29.51,SW,230,10.4,11.5,63,0.00,CLR,OVC,0.20,WeatherDisplay:10.37,2013-11-18 19:41:00,
2013-11-18 14:42:00,56.8,44.3,29.51,WSW,239,9.3,12.7,63,0.00,CLR,OVC,0.20,WeatherDisplay:10.37,2013-11-18 19:42:00,
2013-11-18 14:43:00,56.8,44.3,29.51,WSW,238,9.0,12.7,63,0.00,CLR,OVC,0.20,WeatherDisplay:10.37,2013-11-18 19:43:00,
2013-11-18 14:45:00,56.9,44.0,29.51,SW,228,12.6,15.0,62,0.00,CLR,OVC,0.20,WeatherDisplay:10.37,2013-11-18 19:45:00,
2013-11-18 14:47:00,56.9,43.6,29.51,SW,230,14.2,18.0,61,0.00,CLR,OVC,0.20,WeatherDisplay:10.37,2013-11-18 19:47:00,
2013-11-18 14:48:00,56.9,42.7,29.51,WSW,237,17.3,22.0,59,0.00,CLR,OVC,0.20,WeatherDisplay:10.37,2013-11-18 19:48:00,
2013-11-18 14:50:00,56.8,41.7,29.51,WSW,249,15.4,27.6,57,0.00,CLR,OVC,0.20,WeatherDisplay:10.37,2013-11-18 19:50:00,
2013-11-18 14:52:00,56.8,41.7,29.51,WSW,241,16.1,19.6,57,0.00,CLR,OVC,0.20,WeatherDisplay:10.37,2013-11-18 19:52:00,
2013-11-18 14:53:00,56.8,42.2,29.51,WSW,247,12.8,18.4,58,0.00,CLR,OVC,0.20,WeatherDisplay:10.37,2013-11-18 19:53:00,
2013-11-18 14:55:00,56.6,41.5,29.51,SW,233,14.3,22.0,57,0.00,CLR,OVC,0.20,WeatherDisplay:10.37,2013-11-18 19:55:00,
2013-11-18 14:56:00,56.5,41.0,29.51,WSW,238,16.9,21.9,56,0.00,CLR,OVC,0.20,WeatherDisplay:10.37,2013-11-18 19:56:00,
2013-11-18 14:57:00,56.5,41.0,29.52,WSW,238,17.1,21.9,56,0.00,CLR,OVC,0.20,WeatherDisplay:10.37,2013-11-18 19:57:00,
2013-11-18 14:58:00,56.5,41.0,29.51,WSW,246,16.8,21.9,56,0.00,CLR,OVC,0.20,WeatherDisplay:10.37,2013-11-18 19:58:00,
2013-11-18 14:59:00,56.5,41.0,29.51,WSW,248,17.7,21.0,56,0.00,CLR,OVC,0.20,WeatherDisplay:10.37,2013-11-18 19:59:00,
2013-11-18 15:00:00,56.6,40.6,29.51,WSW,246,17.3,23.0,55,0.00,CLR,OVC,0.20,WeatherDisplay:10.37,2013-11-18 20:00:00,
2013-11-18 15:01:00,56.6,41.1,29.51,WSW,237,12.8,21.9,56,0.00,CLR,OVC,0.20,WeatherDisplay:10.37,2013-11-18 20:01:00,
2013-11-18 15:02:00,56.6,41.1,29.52,SW,228,16.6,21.0,56,0.00,CLR,OVC,0.20,WeatherDisplay:10.37,2013-11-18 20:02:00,
2013-11-18 15:03:00,56.6,40.1,29.51,SW,230,18.2,20.7,54,0.00,CLR,OVC,0.20,WeatherDisplay:10.37,2013-11-18 20:03:00,
2013-11-18 15:04:00,56.7,40.2,29.51,WSW,239,17.7,20.7,54,0.00,CLR,OVC,0.20,WeatherDisplay:10.37,2013-11-18 20:04:00,
2013-11-18 15:05:00,56.7,40.7,29.51,SW,233,13.8,18.4,55,0.00,CLR,OVC,0.20,WeatherDisplay:10.37,2013-11-18 20:05:00,
2013-11-18 15:07:00,56.6,40.6,29.51,SW,232,19.6,27.6,55,0.00,CLR,OVC,0.20,WeatherDisplay:10.37,2013-11-18 20:07:00,
2013-11-18 15:08:00,56.6,40.6,29.51,SW,217,17.3,27.6,55,0.00,CLR,OVC,0.20,WeatherDisplay:10.37,2013-11-18 20:08:00,
2013-11-18 15:09:00,56.6,40.6,29.51,SW,227,18.1,24.2,55,0.00,CLR,OVC,0.20,WeatherDisplay:10.37,2013-11-18 20:09:00,
2013-11-18 15:11:00,56.5,40.5,29.51,SW,225,15.9,21.9,55,0.00,CLR,OVC,0.20,WeatherDisplay:10.37,2013-11-18 20:11:00,
2013-11-18 15:12:00,56.5,40.5,29.51,SW,232,17.4,19.6,55,0.00,CLR,OVC,0.20,WeatherDisplay:10.37,2013-11-18 20:12:00,
2013-11-18 15:14:00,56.3,40.3,29.51,SW,229,18.2,20.7,55,0.00,CLR,OVC,0.20,WeatherDisplay:10.37,2013-11-18 20:14:00,
2013-11-18 15:16:00,56.2,40.2,29.51,SW,229,17.0,20.7,55,0.00,CLR,OVC,0.20,WeatherDisplay:10.37,2013-11-18 20:16:00,
2013-11-18 15:17:00,56.2,40.2,29.51,SW,233,17.1,20.7,55,0.00,CLR,OVC,0.20,WeatherDisplay:10.37,2013-11-18 20:17:00,
2013-11-18 15:19:00,56.1,40.1,29.51,SW,219,19.1,29.0,55,0.00,CLR,OVC,0.20,WeatherDisplay:10.37,2013-11-18 20:19:00,
2013-11-18 15:20:00,56.1,40.1,29.51,SW,231,20.6,24.2,55,0.00,CLR,OVC,0.20,WeatherDisplay:10.37,2013-11-18 20:20:00,
2013-11-18 15:22:00,56.1,40.1,29.51,WSW,243,17.2,24.2,55,0.00,CLR,OVC,0.20,WeatherDisplay:10.37,2013-11-18 20:22:00,
2013-11-18 15:23:00,56.1,40.1,29.51,SW,235,17.1,24.2,55,0.00,CLR,OVC,0.20,WeatherDisplay:10.37,2013-11-18 20:23:00,
2013-11-18 15:24:00,56.0,40.1,29.51,SW,226,16.7,21.9,55,0.00,CLR,OVC,0.20,WeatherDisplay:10.37,2013-11-18 20:24:00,
2013-11-18 15:25:00,56.0,40.1,29.51,SW,225,15.7,19.6,55,0.00,CLR,OVC,0.20,WeatherDisplay:10.37,2013-11-18 20:25:00,
2013-11-18 15:27:00,56.0,41.0,29.52,SW,227,14.7,19.6,57,0.00,CLR,OVC,0.20,WeatherDisplay:10.37,2013-11-18 20:27:00,
2013-11-18 15:28:00,55.8,40.8,29.51,SW,233,14.2,17.3,57,0.00,CLR,OVC,0.20,WeatherDisplay:10.37,2013-11-18 20:28:00,
2013-11-18 15:29:00,55.7,40.7,29.51,SW,236,14.5,17.3,57,0.00,CLR,OVC,0.20,WeatherDisplay:10.37,2013-11-18 20:29:00,
2013-11-18 15:30:00,55.6,40.6,29.51,SW,231,14.8,20.7,57,0.00,CLR,OVC,0.20,WeatherDisplay:10.37,2013-11-18 20:30:00,
2013-11-18 15:31:00,55.6,40.6,29.51,SW,229,16.5,21.9,57,0.00,CLR,OVC,0.20,WeatherDisplay:10.37,2013-11-18 20:31:00,
2013-11-18 15:32:00,55.6,40.1,29.52,SW,236,17.4,19.6,56,0.00,CLR,OVC,0.20,WeatherDisplay:10.37,2013-11-18 20:32:00,
2013-11-18 15:33:00,55.6,40.1,29.51,SW,223,17.2,23.0,56,0.00,CLR,OVC,0.20,WeatherDisplay:10.37,2013-11-18 20:33:00,
2013-11-18 15:35:00,55.5,40.5,29.51,SW,226,14.7,23.0,57,0.00,CLR,OVC,0.20,WeatherDisplay:10.37,2013-11-18 20:35:00,
2013-11-18 15:36:00,55.4,40.0,29.52,SW,230,18.2,23.0,56,0.00,CLR,OVC,0.20,WeatherDisplay:10.37,2013-11-18 20:36:00,
2013-11-18 15:37:00,55.4,40.0,29.51,WSW,237,14.0,21.9,56,0.00,CLR,OVC,0.20,WeatherDisplay:10.37,2013-11-18 20:37:00,
2013-11-18 15:38:00,55.3,39.9,29.51,SW,231,14.0,19.6,56,0.00,CLR,OVC,0.20,WeatherDisplay:10.37,2013-11-18 20:38:00,
2013-11-18 15:41:00,55.2,40.2,29.52,SW,225,10.6,17.3,57,0.00,CLR,OVC,0.20,WeatherDisplay:10.37,2013-11-18 20:41:00,
2013-11-18 15:42:00,55.1,40.1,29.52,SW,233,12.4,14.0,57,0.00,CLR,OVC,0.20,WeatherDisplay:10.37,2013-11-18 20:42:00,
2013-11-18 15:43:00,55.1,40.1,29.52,WSW,242,12.7,18.4,57,0.00,CLR,OVC,0.20,WeatherDisplay:10.37,2013-11-18 20:43:00,
2013-11-18 15:44:00,55.0,40.0,29.52,SW,228,14.7,18.4,57,0.00,CLR,OVC,0.20,WeatherDisplay:10.37,2013-11-18 20:44:00,
2013-11-18 15:46:00,54.9,39.9,29.51,SW,222,12.4,18.4,57,0.00,CLR,OVC,0.20,WeatherDisplay:10.37,2013-11-18 20:46:00,
2013-11-18 15:47:00,54.9,40.4,29.52,SW,225,10.6,15.0,58,0.00,CLR,OVC,0.20,WeatherDisplay:10.37,2013-11-18 20:47:00,
2013-11-18 15:48:00,54.9,40.4,29.52,SW,221,9.7,13.8,58,0.00,CLR,OVC,0.20,WeatherDisplay:10.37,2013-11-18 20:48:00,
2013-11-18 15:49:00,54.8,40.7,29.52,SW,225,9.4,11.5,59,0.00,CLR,OVC,0.20,WeatherDisplay:10.37,2013-11-18 20:49:00,
2013-11-18 15:52:00,54.5,40.5,29.52,SW,235,8.3,10.4,59,0.00,CLR,OVC,0.20,WeatherDisplay:10.37,2013-11-18 20:52:00,
2013-11-18 15:53:00,54.3,40.7,29.52,SW,223,9.3,11.5,60,0.00,CLR,OVC,0.20,WeatherDisplay:10.37,2013-11-18 20:53:00,
2013-11-18 15:54:00,54.2,40.2,29.52,SW,228,9.0,11.5,59,0.00,CLR,OVC,0.20,WeatherDisplay:10.37,2013-11-18 20:54:00,
2013-11-18 15:57:00,53.9,40.3,29.52,SW,228,9.2,11.5,60,0.00,CLR,OVC,0.20,WeatherDisplay:10.37,2013-11-18 20:57:00,
2013-11-18 15:58:00,53.9,40.3,29.52,SW,229,9.1,11.5,60,0.00,CLR,OVC,0.20,WeatherDisplay:10.37,2013-11-18 20:58:00,
2013-11-18 15:59:00,53.8,40.2,29.52,SW,215,7.7,10.4,60,0.00,CLR,OVC,0.20,WeatherDisplay:10.37,2013-11-18 20:59:00,
2013-11-18 16:02:00,53.5,40.4,29.52,South,191,5.2,7.0,61,0.00,CLR,OVC,0.20,WeatherDisplay:10.37,2013-11-18 21:02:00,
2013-11-18 16:03:00,53.4,40.3,29.52,South,184,5.2,6.9,61,0.00,CLR,OVC,0.20,WeatherDisplay:10.37,2013-11-18 21:03:00,
2013-11-18 16:04:00,53.3,40.2,29.52,South,186,4.9,6.9,61,0.00,CLR,OVC,0.20,WeatherDisplay:10.37,2013-11-18 21:04:00,
2013-11-18 16:07:00,53.0,39.9,29.51,SSW,195,8.7,12.7,61,0.00,CLR,OVC,0.20,WeatherDisplay:10.37,2013-11-18 21:07:00,
2013-11-18 16:08:00,53.0,39.9,29.51,SSW,201,9.1,12.7,61,0.00,CLR,OVC,0.20,WeatherDisplay:10.37,2013-11-18 21:08:00,
2013-11-18 16:09:00,53.0,39.9,29.51,SSW,207,9.3,12.0,61,0.00,CLR,OVC,0.20,WeatherDisplay:10.37,2013-11-18 21:09:00,
2013-11-18 16:12:00,53.0,39.5,29.52,SW,216,10.5,14.0,60,0.00,CLR,OVC,0.20,WeatherDisplay:10.37,2013-11-18 21:12:00,
2013-11-18 16:13:00,53.0,39.5,29.52,SW,217,11.8,15.0,60,0.00,CLR,OVC,0.20,WeatherDisplay:10.37,2013-11-18 21:13:00,
2013-11-18 16:14:00,53.0,39.5,29.52,SW,220,11.1,15.0,60,0.00,CLR,OVC,0.20,WeatherDisplay:10.37,2013-11-18 21:14:00,
2013-11-18 16:18:00,52.9,39.8,29.52,SW,225,9.1,11.5,61,0.00,CLR,OVC,0.20,WeatherDisplay:10.37,2013-11-18 21:18:00,
2013-11-18 16:19:00,52.8,39.7,29.52,SW,219,8.4,12.0,61,0.00,CLR,OVC,0.20,WeatherDisplay:10.37,2013-11-18 21:19:00,
2013-11-18 16:20:00,52.8,39.7,29.52,SW,220,8.9,11.5,61,0.00,CLR,OVC,0.20,WeatherDisplay:10.37,2013-11-18 21:20:00,
2013-11-18 16:23:00,52.7,39.6,29.53,SW,226,10.8,13.8,61,0.00,CLR,OVC,0.20,WeatherDisplay:10.37,2013-11-18 21:23:00,
2013-11-18 16:24:00,52.6,39.5,29.52,SW,225,10.1,11.5,61,0.00,CLR,OVC,0.20,WeatherDisplay:10.37,2013-11-18 21:24:00,
2013-11-18 16:25:00,52.6,39.5,29.52,SW,228,9.5,11.5,61,0.00,CLR,OVC,0.20,WeatherDisplay:10.37,2013-11-18 21:25:00,
2013-11-18 16:26:00,52.5,39.8,29.52,SW,220,8.0,11.5,62,0.00,CLR,OVC,0.20,WeatherDisplay:10.37,2013-11-18 21:26:00,
2013-11-18 16:28:00,52.3,39.7,29.52,SW,219,8.4,11.5,62,0.00,CLR,OVC,0.20,WeatherDisplay:10.37,2013-11-18 21:28:00,
2013-11-18 16:29:00,52.2,40.0,29.53,SW,227,6.9,11.5,63,0.00,CLR,OVC,0.20,WeatherDisplay:10.37,2013-11-18 21:29:00,
2013-11-18 16:30:00,52.1,39.9,29.53,SW,224,7.2,10.0,63,0.00,CLR,OVC,0.20,WeatherDisplay:10.37,2013-11-18 21:30:00,
2013-11-18 16:31:00,52.0,39.8,29.53,SW,236,9.5,11.5,63,0.00,CLR,OVC,0.20,WeatherDisplay:10.37,2013-11-18 21:31:00,
2013-11-18 16:34:00,51.8,40.0,29.54,WSW,240,8.4,9.2,64,0.00,CLR,OVC,0.20,WeatherDisplay:10.37,2013-11-18 21:34:00,
2013-11-18 16:35:00,51.8,40.0,29.54,WSW,240,9.0,12.0,64,0.00,CLR,OVC,0.20,WeatherDisplay:10.37,2013-11-18 21:35:00,
2013-11-18 16:36:00,51.8,39.6,29.54,WSW,237,14.4,19.0,63,0.00,CLR,OVC,0.20,WeatherDisplay:10.37,2013-11-18 21:36:00,
2013-11-18 16:39:00,52.4,40.2,29.54,WSW,253,17.6,26.5,63,0.00,CLR,OVC,0.20,WeatherDisplay:10.37,2013-11-18 21:39:00,
2013-11-18 16:40:00,52.5,40.3,29.54,WSW,247,17.3,24.2,63,0.00,CLR,OVC,0.20,WeatherDisplay:10.37,2013-11-18 21:40:00,
2013-11-18 16:41:00,52.7,40.5,29.55,WSW,255,15.4,19.6,63,0.00,CLR,OVC,0.20,WeatherDisplay:10.37,2013-11-18 21:41:00,
2013-11-18 16:42:00,52.8,40.5,29.55,WSW,254,13.9,19.6,63,0.00,CLR,OVC,0.20,WeatherDisplay:10.37,2013-11-18 21:42:00,
2013-11-18 16:44:00,52.8,40.5,29.55,West,266,13.0,19.6,63,0.00,CLR,OVC,0.20,WeatherDisplay:10.37,2013-11-18 21:44:00,
2013-11-18 16:45:00,52.8,40.5,29.55,West,270,13.0,19.6,63,0.00,CLR,OVC,0.20,WeatherDisplay:10.37,2013-11-18 21:45:00,
2013-11-18 16:47:00,52.9,40.2,29.55,West,274,14.0,17.3,62,0.00,CLR,OVC,0.20,WeatherDisplay:10.37,2013-11-18 21:47:00,
2013-11-18 16:48:00,52.9,40.2,29.55,West,280,12.8,16.1,62,0.00,CLR,OVC,0.20,WeatherDisplay:10.37,2013-11-18 21:48:00,
2013-11-18 16:49:00,52.8,40.2,29.55,West,262,10.0,17.0,62,0.00,CLR,OVC,0.20,WeatherDisplay:10.37,2013-11-18 21:49:00,
2013-11-18 16:50:00,52.8,40.5,29.55,West,266,11.8,13.8,63,0.00,CLR,OVC,0.20,WeatherDisplay:10.37,2013-11-18 21:50:00,
2013-11-18 16:52:00,52.7,40.5,29.55,WSW,251,9.4,12.7,63,0.00,CLR,OVC,0.20,WeatherDisplay:10.37,2013-11-18 21:52:00,
2013-11-18 16:53:00,52.6,40.4,29.55,WSW,253,10.4,11.5,63,0.00,CLR,OVC,0.20,WeatherDisplay:10.37,2013-11-18 21:53:00,
2013-11-18 16:55:00,52.4,40.6,29.55,WSW,254,11.5,15.0,64,0.00,CLR,OVC,0.20,WeatherDisplay:10.37,2013-11-18 21:55:00,
2013-11-18 16:58:00,52.2,40.8,29.55,SW,235,8.1,10.4,65,0.00,CLR,OVC,0.20,WeatherDisplay:10.37,2013-11-18 21:58:00,
2013-11-18 17:00:00,52.0,40.6,29.56,SW,235,13.8,17.3,65,0.00,CLR,OVC,0.20,WeatherDisplay:10.37,2013-11-18 22:00:00,
2013-11-18 17:01:00,51.9,40.5,29.56,SW,234,13.3,17.3,65,0.00,CLR,OVC,0.20,WeatherDisplay:10.37,2013-11-18 22:01:00,
2013-11-18 17:03:00,51.9,40.5,29.56,WSW,250,12.4,17.3,65,0.00,CLR,OVC,0.20,WeatherDisplay:10.37,2013-11-18 22:03:00,
2013-11-18 17:06:00,51.9,40.9,29.56,WSW,241,10.9,16.1,66,0.00,CLR,OVC,0.20,WeatherDisplay:10.37,2013-11-18 22:06:00,
2013-11-18 17:08:00,51.8,40.8,29.57,SW,236,14.2,18.4,66,0.00,CLR,OVC,0.20,WeatherDisplay:10.37,2013-11-18 22:08:00,
2013-11-18 17:09:00,51.8,40.8,29.57,WSW,240,14.4,18.4,66,0.00,CLR,OVC,0.20,WeatherDisplay:10.37,2013-11-18 22:09:00,
2013-11-18 17:11:00,51.8,41.2,29.57,West,260,12.9,20.7,67,0.00,CLR,OVC,0.20,WeatherDisplay:10.37,2013-11-18 22:11:00,
2013-11-18 17:13:00,51.8,40.8,29.57,West,267,14.3,17.0,66,0.00,CLR,OVC,0.20,WeatherDisplay:10.37,2013-11-18 22:13:00,
2013-11-18 17:14:00,51.8,40.8,29.57,West,274,16.7,19.6,66,0.00,CLR,OVC,0.20,WeatherDisplay:10.37,2013-11-18 22:14:00,
2013-11-18 17:16:00,51.8,40.8,29.57,West,274,13.1,19.6,66,0.00,CLR,OVC,0.20,WeatherDisplay:10.37,2013-11-18 22:16:00,
2013-11-18 17:19:00,51.7,40.7,29.57,WSW,256,10.8,14.0,66,0.00,CLR,OVC,0.20,WeatherDisplay:10.37,2013-11-18 22:19:00,
2013-11-18 17:21:00,51.6,41.0,29.57,WSW,246,10.3,17.3,67,0.00,CLR,OVC,0.20,WeatherDisplay:10.37,2013-11-18 22:21:00,
2013-11-18 17:22:00,51.6,40.6,29.57,WSW,248,10.3,17.3,66,0.00,CLR,OVC,0.20,WeatherDisplay:10.37,2013-11-18 22:22:00,
2013-11-18 17:24:00,51.4,40.8,29.58,WSW,248,14.8,19.6,67,0.00,CLR,OVC,0.20,WeatherDisplay:10.37,2013-11-18 22:24:00,
2013-11-18 17:26:00,51.2,40.6,29.57,WSW,242,13.8,18.4,67,0.00,CLR,OVC,0.20,WeatherDisplay:10.37,2013-11-18 22:26:00,
2013-11-18 17:27:00,51.2,40.6,29.57,WSW,244,13.4,17.3,67,0.00,CLR,OVC,0.20,WeatherDisplay:10.37,2013-11-18 22:27:00,
2013-11-18 17:29:00,51.0,40.8,29.57,WSW,241,12.0,16.1,68,0.00,CLR,OVC,0.20,WeatherDisplay:10.37,2013-11-18 22:29:00,
2013-11-18 17:30:00,51.0,40.8,29.57,SW,234,11.1,16.1,68,0.00,CLR,OVC,0.20,WeatherDisplay:10.37,2013-11-18 22:30:00,
2013-11-18 17:31:00,50.8,40.6,29.57,WSW,240,10.6,13.8,68,0.00,CLR,OVC,0.20,WeatherDisplay:10.37,2013-11-18 22:31:00,
2013-11-18 17:32:00,50.8,40.6,29.57,WSW,242,10.5,13.8,68,0.00,CLR,OVC,0.20,WeatherDisplay:10.37,2013-11-18 22:32:00,
2013-11-18 17:33:00,50.8,40.6,29.58,WSW,242,9.9,13.0,68,0.00,CLR,OVC,0.20,WeatherDisplay:10.37,2013-11-18 22:33:00,
2013-11-18 17:34:00,50.7,40.5,29.57,WSW,246,11.0,15.0,68,0.00,CLR,OVC,0.20,WeatherDisplay:10.37,2013-11-18 22:34:00,
2013-11-18 17:35:00,50.6,40.4,29.57,WSW,242,8.4,15.0,68,0.00,CLR,OVC,0.20,WeatherDisplay:10.37,2013-11-18 22:35:00,
2013-11-18 17:37:00,50.5,40.7,29.57,SW,236,7.6,10.4,69,0.00,CLR,OVC,0.20,WeatherDisplay:10.37,2013-11-18 22:37:00,
2013-11-18 17:38:00,50.4,40.6,29.57,SW,236,6.9,8.1,69,0.00,CLR,OVC,0.20,WeatherDisplay:10.37,2013-11-18 22:38:00,
2013-11-18 17:39:00,50.1,40.3,29.58,SW,224,7.7,11.0,69,0.00,CLR,OVC,0.20,WeatherDisplay:10.37,2013-11-18 22:39:00,
2013-11-18 17:40:00,50.0,40.6,29.58,SW,233,9.2,13.8,70,0.00,CLR,OVC,0.20,WeatherDisplay:10.37,2013-11-18 22:40:00,
2013-11-18 17:42:00,49.8,40.4,29.58,SW,221,8.5,11.0,70,0.00,CLR,OVC,0.20,WeatherDisplay:10.37,2013-11-18 22:42:00,
2013-11-18 17:43:00,49.6,40.6,29.58,SW,228,10.9,13.8,71,0.00,CLR,OVC,0.20,WeatherDisplay:10.37,2013-11-18 22:43:00,
2013-11-18 17:45:00,49.5,40.5,29.58,SW,234,9.9,13.8,71,0.00,CLR,OVC,0.20,WeatherDisplay:10.37,2013-11-18 22:45:00,
2013-11-18 17:47:00,49.4,40.4,29.58,SW,229,9.6,12.7,71,0.00,CLR,OVC,0.20,WeatherDisplay:10.37,2013-11-18 22:47:00,
2013-11-18 17:49:00,49.2,40.2,29.58,SW,236,8.5,10.4,71,0.00,CLR,OVC,0.20,WeatherDisplay:10.37,2013-11-18 22:49:00,
2013-11-18 17:50:00,49.2,40.2,29.58,SW,234,7.6,10.4,71,0.00,CLR,OVC,0.20,WeatherDisplay:10.37,2013-11-18 22:50:00,
2013-11-18 17:51:00,49.1,40.1,29.58,WSW,238,9.5,11.5,71,0.00,CLR,OVC,0.20,WeatherDisplay:10.37,2013-11-18 22:51:00,
2013-11-18 17:52:00,49.0,40.4,29.58,WSW,237,8.6,11.5,72,0.00,CLR,OVC,0.20,WeatherDisplay:10.37,2013-11-18 22:52:00,
2013-11-18 17:53:00,49.0,40.4,29.58,SW,228,8.5,11.5,72,0.00,CLR,OVC,0.20,WeatherDisplay:10.37,2013-11-18 22:53:00,
2013-11-18 17:54:00,48.9,40.3,29.58,WSW,240,9.9,11.5,72,0.00,CLR,OVC,0.20,WeatherDisplay:10.37,2013-11-18 22:54:00,
2013-11-18 17:55:00,48.9,40.3,29.58,WSW,238,10.6,12.0,72,0.00,CLR,OVC,0.20,WeatherDisplay:10.37,2013-11-18 22:55:00,
2013-11-18 17:56:00,48.8,40.2,29.58,SW,232,11.0,12.7,72,0.00,CLR,OVC,0.20,WeatherDisplay:10.37,2013-11-18 22:56:00,
2013-11-18 17:57:00,48.8,39.8,29.58,SW,236,10.4,12.7,71,0.00,CLR,OVC,0.20,WeatherDisplay:10.37,2013-11-18 22:57:00,
2013-11-18 17:58:00,48.8,39.8,29.58,WSW,237,10.4,12.7,71,0.00,CLR,OVC,0.20,WeatherDisplay:10.37,2013-11-18 22:58:00,
2013-11-18 18:00:00,48.8,39.8,29.58,WSW,240,11.5,13.0,71,0.00,CLR,OVC,0.20,WeatherDisplay:10.37,2013-11-18 23:00:00,
2013-11-18 18:01:00,48.8,39.8,29.58,WSW,242,11.9,16.1,71,0.00,CLR,OVC,0.20,WeatherDisplay:10.37,2013-11-18 23:01:00,
2013-11-18 18:03:00,48.8,39.8,29.58,WSW,240,12.4,16.1,71,0.00,CLR,OVC,0.20,WeatherDisplay:10.37,2013-11-18 23:03:00,
2013-11-18 18:06:00,48.9,39.5,29.58,WSW,247,13.3,17.3,70,0.00,CLR,OVC,0.20,WeatherDisplay:10.37,2013-11-18 23:06:00,
2013-11-18 18:08:00,49.0,39.3,29.58,WSW,247,9.2,13.8,69,0.00,CLR,OVC,0.20,WeatherDisplay:10.37,2013-11-18 23:08:00,
2013-11-18 18:09:00,49.1,39.4,29.58,WSW,255,10.8,18.4,69,0.00,CLR,OVC,0.20,WeatherDisplay:10.37,2013-11-18 23:09:00,
2013-11-18 18:11:00,49.1,39.4,29.58,WSW,240,12.0,15.0,69,0.00,CLR,OVC,0.20,WeatherDisplay:10.37,2013-11-18 23:11:00,
2013-11-18 18:12:00,49.1,39.4,29.58,WSW,242,13.9,19.6,69,0.00,CLR,OVC,0.20,WeatherDisplay:10.37,2013-11-18 23:12:00,
2013-11-18 18:13:00,49.2,39.5,29.58,WSW,245,14.3,19.6,69,0.00,CLR,OVC,0.20,WeatherDisplay:10.37,2013-11-18 23:13:00,
2013-11-18 18:14:00,49.2,39.5,29.58,WSW,250,16.3,23.0,69,0.00,CLR,OVC,0.20,WeatherDisplay:10.37,2013-11-18 23:14:00,
2013-11-18 18:16:00,49.3,39.2,29.58,WSW,256,15.7,18.4,68,0.00,CLR,OVC,0.20,WeatherDisplay:10.37,2013-11-18 23:16:00,
2013-11-18 18:17:00,49.4,39.3,29.58,WSW,249,13.9,20.0,68,0.00,CLR,OVC,0.20,WeatherDisplay:10.37,2013-11-18 23:17:00,
2013-11-18 18:18:00,49.4,39.3,29.58,WSW,247,14.2,19.6,68,0.00,CLR,OVC,0.20,WeatherDisplay:10.37,2013-11-18 23:18:00,
2013-11-18 18:19:00,49.4,39.3,29.58,West,262,14.9,19.6,68,0.00,CLR,OVC,0.20,WeatherDisplay:10.37,2013-11-18 23:19:00,
2013-11-18 18:21:00,49.5,39.4,29.59,WSW,253,13.6,17.3,68,0.00,CLR,OVC,0.20,WeatherDisplay:10.37,2013-11-18 23:21:00,
2013-11-18 18:22:00,49.5,39.4,29.59,West,260,13.5,19.6,68,0.00,CLR,OVC,0.20,WeatherDisplay:10.37,2013-11-18 23:22:00,
2013-11-18 18:23:00,49.5,39.4,29.58,WSW,254,12.9,16.1,68,0.00,CLR,OVC,0.20,WeatherDisplay:10.37,2013-11-18 23:23:00,
2013-11-18 18:24:00,49.5,39.4,29.58,WSW,253,15.3,17.3,68,0.00,CLR,OVC,0.20,WeatherDisplay:10.37,2013-11-18 23:24:00,
2013-11-18 18:27:00,49.4,39.7,29.58,WSW,252,12.8,18.4,69,0.00,CLR,OVC,0.20,WeatherDisplay:10.37,2013-11-18 23:27:00,
2013-11-18 18:28:00,49.4,39.7,29.58,WSW,248,12.7,17.3,69,0.00,CLR,OVC,0.20,WeatherDisplay:10.37,2013-11-18 23:28:00,
2013-11-18 18:29:00,49.4,39.7,29.58,West,261,12.3,16.1,69,0.00,CLR,OVC,0.20,WeatherDisplay:10.37,2013-11-18 23:29:00,
2013-11-18 18:30:00,49.3,39.6,29.58,West,264,11.4,16.1,69,0.00,CLR,OVC,0.20,WeatherDisplay:10.37,2013-11-18 23:30:00,
2013-11-18 18:32:00,49.1,39.4,29.58,WSW,238,13.2,17.3,69,0.00,CLR,OVC,0.20,WeatherDisplay:10.37,2013-11-18 23:32:00,
2013-11-18 18:33:00,49.1,39.4,29.58,WSW,256,15.3,18.4,69,0.00,CLR,OVC,0.20,WeatherDisplay:10.37,2013-11-18 23:33:00,
2013-11-18 18:34:00,49.0,39.6,29.58,WSW,239,13.8,19.6,70,0.00,CLR,OVC,0.20,WeatherDisplay:10.37,2013-11-18 23:34:00,
2013-11-18 18:35:00,49.0,39.6,29.58,WSW,246,12.3,17.3,70,0.00,CLR,OVC,0.20,WeatherDisplay:10.37,2013-11-18 23:35:00,
2013-11-18 18:38:00,48.8,39.8,29.58,WSW,254,12.6,15.0,71,0.00,CLR,OVC,0.20,WeatherDisplay:10.37,2013-11-18 23:38:00,
2013-11-18 18:39:00,48.8,39.8,29.58,WSW,244,13.4,15.0,71,0.00,CLR,OVC,0.20,WeatherDisplay:10.37,2013-11-18 23:39:00,
2013-11-18 18:40:00,48.7,39.7,29.58,WSW,242,11.4,14.0,71,0.00,CLR,OVC,0.20,WeatherDisplay:10.37,2013-11-18 23:40:00,
2013-11-18 18:43:00,48.4,39.4,29.57,SW,234,9.5,11.5,71,0.00,CLR,OVC,0.20,WeatherDisplay:10.37,2013-11-18 23:43:00,
2013-11-18 18:44:00,48.4,39.8,29.57,WSW,238,9.8,12.7,72,0.00,CLR,OVC,0.20,WeatherDisplay:10.37,2013-11-18 23:44:00,
2013-11-18 18:45:00,48.3,39.7,29.58,SW,228,8.7,12.7,72,0.00,CLR,OVC,0.20,WeatherDisplay:10.37,2013-11-18 23:45:00,
2013-11-18 18:49:00,47.8,39.6,29.58,SW,230,10.3,11.5,73,0.00,CLR,OVC,0.20,WeatherDisplay:10.37,2013-11-18 23:49:00,
2013-11-18 18:50:00,47.6,39.4,29.58,SW,232,9.7,12.7,73,0.00,CLR,OVC,0.20,WeatherDisplay:10.37,2013-11-18 23:50:00,
2013-11-18 18:51:00,47.6,39.4,29.58,SW,235,9.7,12.7,73,0.00,CLR,OVC,0.20,WeatherDisplay:10.37,2013-11-18 23:51:00,
2013-11-18 18:54:00,47.4,39.5,29.58,WSW,245,9.9,11.5,74,0.00,CLR,OVC,0.20,WeatherDisplay:10.37,2013-11-18 23:54:00,
2013-11-18 18:55:00,47.3,39.4,29.58,SW,235,9.3,11.5,74,0.00,CLR,OVC,0.20,WeatherDisplay:10.37,2013-11-18 23:55:00,
2013-11-18 18:56:00,47.3,39.4,29.58,SW,230,8.8,11.5,74,0.00,CLR,OVC,0.20,WeatherDisplay:10.37,2013-11-18 23:56:00,
2013-11-18 18:59:00,47.2,39.3,29.58,WSW,240,9.1,12.7,74,0.00,CLR,OVC,0.20,WeatherDisplay:10.37,2013-11-18 23:59:00,
2013-11-18 19:00:00,47.2,39.3,29.59,WSW,240,8.9,12.7,74,0.00,CLR,OVC,0.20,WeatherDisplay:10.37,2013-11-19 00:00:00,
2013-11-18 19:01:00,47.2,39.3,29.58,WSW,252,9.8,14.0,74,0.00,CLR,OVC,0.20,WeatherDisplay:10.37,2013-11-19 00:01:00,
2013-11-18 19:02:00,47.2,39.3,29.58,WSW,240,12.3,17.3,74,0.00,CLR,OVC,0.20,WeatherDisplay:10.37,2013-11-19 00:02:00,
2013-11-18 19:04:00,47.3,39.4,29.59,WSW,249,9.5,13.8,74,0.00,CLR,OVC,0.20,WeatherDisplay:10.37,2013-11-19 00:04:00,
2013-11-18 19:05:00,47.3,39.4,29.58,WSW,242,10.2,16.0,74,0.00,CLR,OVC,0.20,WeatherDisplay:10.37,2013-11-19 00:05:00,
2013-11-18 19:06:00,47.3,39.1,29.58,WSW,237,10.2,13.8,73,0.00,CLR,OVC,0.20,WeatherDisplay:10.37,2013-11-19 00:06:00,
2013-11-18 19:07:00,47.3,39.1,29.59,SW,233,11.3,13.8,73,0.00,CLR,OVC,0.20,WeatherDisplay:10.37,2013-11-19 00:07:00,
2013-11-18 19:09:00,47.4,39.2,29.59,SW,222,8.9,15.0,73,0.00,CLR,OVC,0.20,WeatherDisplay:10.37,2013-11-19 00:09:00,
2013-11-18 19:10:00,47.4,39.2,29.58,SW,222,8.9,11.5,73,0.00,CLR,OVC,0.20,WeatherDisplay:10.37,2013-11-19 00:10:00,
2013-11-18 19:11:00,47.4,39.2,29.59,SW,218,8.6,11.5,73,0.00,CLR,OVC,0.20,WeatherDisplay:10.37,2013-11-19 00:11:00,
2013-11-18 19:12:00,47.3,39.1,29.58,SW,219,8.7,10.4,73,0.00,CLR,OVC,0.20,WeatherDisplay:10.37,2013-11-19 00:12:00,
2013-11-18 19:15:00,47.2,39.3,29.59,SW,221,9.6,12.0,74,0.00,CLR,OVC,0.20,WeatherDisplay:10.37,2013-11-19 00:15:00,
2013-11-18 19:16:00,47.1,39.2,29.59,SW,227,9.6,13.8,74,0.00,CLR,OVC,0.20,WeatherDisplay:10.37,2013-11-19 00:16:00,
2013-11-18 19:17:00,47.1,39.2,29.59,SW,226,9.8,13.8,74,0.00,CLR,OVC,0.20,WeatherDisplay:10.37,2013-11-19 00:17:00,
2013-11-18 19:18:00,47.1,39.2,29.59,SW,223,11.6,13.8,74,0.00,CLR,OVC,0.20,WeatherDisplay:10.37,2013-11-19 00:18:00,
2013-11-18 19:20:00,47.0,39.1,29.59,SW,224,10.9,13.0,74,0.00,CLR,OVC,0.20,WeatherDisplay:10.37,2013-11-19 00:20:00,
2013-11-18 19:21:00,47.1,39.2,29.59,SW,224,11.4,16.1,74,0.00,CLR,OVC,0.20,WeatherDisplay:10.37,2013-11-19 00:21:00,
2013-11-18 19:22:00,47.1,39.2,29.59,SW,232,12.8,17.3,74,0.00,CLR,OVC,0.20,WeatherDisplay:10.37,2013-11-19 00:22:00,
2013-11-18 19:23:00,47.2,39.3,29.59,SW,231,13.2,18.0,74,0.00,CLR,OVC,0.20,WeatherDisplay:10.37,2013-11-19 00:23:00,
2013-11-18 19:25:00,47.3,39.4,29.59,SW,228,12.1,16.1,74,0.00,CLR,OVC,0.20,WeatherDisplay:10.37,2013-11-19 00:25:00,
2013-11-18 19:26:00,47.4,39.2,29.59,SW,225,11.7,13.8,73,0.00,CLR,OVC,0.20,WeatherDisplay:10.37,2013-11-19 00:26:00,
2013-11-18 19:27:00,47.4,39.2,29.59,SW,230,12.7,17.0,73,0.00,CLR,OVC,0.20,WeatherDisplay:10.37,2013-11-19 00:27:00,
2013-11-18 19:28:00,47.4,39.2,29.59,SW,234,14.0,19.6,73,0.00,CLR,OVC,0.20,WeatherDisplay:10.37,2013-11-19 00:28:00,
2013-11-18 19:30:00,47.4,39.2,29.59,SW,233,10.8,13.0,73,0.00,CLR,OVC,0.20,WeatherDisplay:10.37,2013-11-19 00:30:00,
2013-11-18 19:31:00,47.4,39.2,29.59,SW,224,12.7,18.4,73,0.00,CLR,OVC,0.20,WeatherDisplay:10.37,2013-11-19 00:31:00,
2013-11-18 19:32:00,47.4,39.2,29.59,SW,227,12.9,17.0,73,0.00,CLR,OVC,0.20,WeatherDisplay:10.37,2013-11-19 00:32:00,
2013-11-18 19:33:00,47.5,39.3,29.59,WSW,244,12.7,16.1,73,0.00,CLR,OVC,0.20,WeatherDisplay:10.37,2013-11-19 00:33:00,
2013-11-18 19:35:00,47.5,39.3,29.59,SW,231,15.7,19.6,73,0.00,CLR,OVC,0.20,WeatherDisplay:10.37,2013-11-19 00:35:00,
2013-11-18 19:36:00,47.5,39.3,29.59,SW,234,14.9,19.6,73,0.00,CLR,OVC,0.20,WeatherDisplay:10.37,2013-11-19 00:36:00,
2013-11-18 19:37:00,47.5,39.6,29.60,WSW,239,13.4,19.0,74,0.00,CLR,OVC,0.20,WeatherDisplay:10.37,2013-11-19 00:37:00,
2013-11-18 19:38:00,47.5,39.6,29.60,SW,236,15.0,19.6,74,0.00,CLR,OVC,0.20,WeatherDisplay:10.37,2013-11-19 00:38:00,
2013-11-18 19:40:00,47.5,39.6,29.59,WSW,240,14.5,19.6,74,0.00,CLR,OVC,0.20,WeatherDisplay:10.37,2013-11-19 00:40:00,
2013-11-18 19:41:00,47.6,39.4,29.59,SW,236,14.2,19.6,73,0.00,CLR,OVC,0.20,WeatherDisplay:10.37,2013-11-19 00:41:00,
2013-11-18 19:43:00,47.5,39.6,29.59,SW,234,17.1,21.9,74,0.00,CLR,OVC,0.20,WeatherDisplay:10.37,2013-11-19 00:43:00,
2013-11-18 19:44:00,47.5,39.6,29.59,SW,236,15.0,20.7,74,0.00,CLR,OVC,0.20,WeatherDisplay:10.37,2013-11-19 00:44:00,
2013-11-18 19:45:00,47.5,39.6,29.59,SW,224,11.5,16.1,74,0.00,CLR,OVC,0.20,WeatherDisplay:10.37,2013-11-19 00:45:00,
2013-11-18 19:46:00,47.4,39.5,29.59,WSW,237,11.6,13.8,74,0.00,CLR,OVC,0.20,WeatherDisplay:10.37,2013-11-19 00:46:00,
2013-11-18 19:48:00,47.3,39.8,29.59,SW,234,15.1,21.9,75,0.00,CLR,OVC,0.20,WeatherDisplay:10.37,2013-11-19 00:48:00,
2013-11-18 19:49:00,47.2,39.7,29.59,SW,230,12.2,19.6,75,0.00,CLR,OVC,0.20,WeatherDisplay:10.37,2013-11-19 00:49:00,
2013-11-18 19:50:00,47.2,39.7,29.59,SW,230,12.0,15.0,75,0.00,CLR,OVC,0.20,WeatherDisplay:10.37,2013-11-19 00:50:00,
2013-11-18 19:51:00,47.1,39.6,29.60,SW,229,12.5,15.0,75,0.00,CLR,OVC,0.20,WeatherDisplay:10.37,2013-11-19 00:51:00,
2013-11-18 19:52:00,47.0,39.5,29.59,SW,221,13.8,20.7,75,0.00,CLR,OVC,0.20,WeatherDisplay:10.37,2013-11-19 00:52:00,
2013-11-18 19:53:00,47.0,39.5,29.60,SW,229,15.1,20.7,75,0.00,CLR,OVC,0.20,WeatherDisplay:10.37,2013-11-19 00:53:00,
2013-11-18 19:55:00,46.9,39.8,29.60,SW,231,17.0,23.0,76,0.00,CLR,OVC,0.20,WeatherDisplay:10.37,2013-11-19 00:55:00,
2013-11-18 19:56:00,46.9,39.7,29.60,SW,233,16.0,19.6,76,0.00,CLR,OVC,0.20,WeatherDisplay:10.37,2013-11-19 00:56:00,
2013-11-18 19:57:00,47.0,39.8,29.60,SW,236,17.5,20.7,76,0.00,CLR,OVC,0.20,WeatherDisplay:10.37,2013-11-19 00:57:00,
2013-11-18 19:59:00,47.0,39.8,29.60,SW,229,12.7,17.3,76,0.00,CLR,OVC,0.20,WeatherDisplay:10.37,2013-11-19 00:59:00,
2013-11-18 20:00:00,47.0,39.8,29.60,SW,228,11.3,17.3,76,0.00,CLR,OVC,0.20,WeatherDisplay:10.37,2013-11-19 01:00:00,
2013-11-18 20:01:00,46.9,39.4,29.60,SW,224,11.5,16.1,75,0.00,CLR,OVC,0.20,WeatherDisplay:10.37,2013-11-19 01:01:00,
2013-11-18 20:04:00,46.7,39.5,29.60,SW,231,16.7,20.7,76,0.00,CLR,OVC,0.20,WeatherDisplay:10.37,2013-11-19 01:04:00,
2013-11-18 20:05:00,46.7,39.5,29.60,SW,229,15.1,20.7,76,0.00,CLR,OVC,0.20,WeatherDisplay:10.37,2013-11-19 01:05:00,
2013-11-18 20:06:00,46.7,39.5,29.60,SW,216,12.8,20.7,76,0.00,CLR,OVC,0.20,WeatherDisplay:10.37,2013-11-19 01:06:00,
2013-11-18 20:07:00,46.7,39.5,29.60,SW,223,13.3,16.1,76,0.00,CLR,OVC,0.20,WeatherDisplay:10.37,2013-11-19 01:07:00,
2013-11-18 20:09:00,46.7,39.5,29.60,SW,225,14.2,19.6,76,0.00,CLR,OVC,0.20,WeatherDisplay:10.37,2013-11-19 01:09:00,
2013-11-18 20:10:00,46.6,39.8,29.60,SW,235,13.7,21.9,77,0.00,CLR,OVC,0.20,WeatherDisplay:10.37,2013-11-19 01:10:00,
2013-11-18 20:11:00,46.6,39.4,29.60,SSW,213,12.0,16.1,76,0.00,CLR,OVC,0.20,WeatherDisplay:10.37,2013-11-19 01:11:00,
2013-11-18 20:12:00,46.6,39.4,29.60,SW,229,12.5,18.4,76,0.00,CLR,OVC,0.20,WeatherDisplay:10.37,2013-11-19 01:12:00,
2013-11-18 20:14:00,46.5,39.7,29.60,SW,220,15.5,20.0,77,0.00,CLR,OVC,0.20,WeatherDisplay:10.37,2013-11-19 01:14:00,
2013-11-18 20:16:00,46.5,39.3,29.60,SW,224,14.4,23.0,76,0.00,CLR,OVC,0.20,WeatherDisplay:10.37,2013-11-19 01:16:00,
2013-11-18 20:18:00,46.4,39.2,29.60,SW,229,11.9,16.1,76,0.00,CLR,OVC,0.20,WeatherDisplay:10.37,2013-11-19 01:18:00,
2013-11-18 20:19:00,46.3,39.1,29.60,SW,231,14.2,20.7,76,0.00,CLR,OVC,0.20,WeatherDisplay:10.37,2013-11-19 01:19:00,
2013-11-18 20:21:00,46.3,39.5,29.60,SW,225,13.8,18.4,77,0.00,CLR,OVC,0.20,WeatherDisplay:10.37,2013-11-19 01:21:00,
2013-11-18 20:22:00,46.3,39.5,29.60,SW,228,13.9,17.3,77,0.00,CLR,OVC,0.20,WeatherDisplay:10.37,2013-11-19 01:22:00,
2013-11-18 20:23:00,46.2,39.1,29.60,SW,222,10.4,16.1,76,0.00,CLR,OVC,0.20,WeatherDisplay:10.37,2013-11-19 01:23:00,
2013-11-18 20:24:00,46.2,39.1,29.60,SW,223,12.1,16.1,76,0.00,CLR,OVC,0.20,WeatherDisplay:10.37,2013-11-19 01:24:00,
2013-11-18 20:26:00,46.1,39.0,29.60,SW,224,11.8,19.6,76,0.00,CLR,OVC,0.20,WeatherDisplay:10.37,2013-11-19 01:26:00,
2013-11-18 20:27:00,46.1,39.3,29.60,SW,227,11.3,16.1,77,0.00,CLR,OVC,0.20,WeatherDisplay:10.37,2013-11-19 01:27:00,
2013-11-18 20:28:00,46.1,39.0,29.60,SW,227,12.7,16.1,76,0.00,CLR,OVC,0.20,WeatherDisplay:10.37,2013-11-19 01:28:00,
2013-11-18 20:29:00,46.0,39.2,29.60,SW,232,10.9,16.1,77,0.00,CLR,OVC,0.20,WeatherDisplay:10.37,2013-11-19 01:29:00,
2013-11-18 20:30:00,46.0,39.2,29.60,SW,225,12.0,20.0,77,0.00,CLR,OVC,0.20,WeatherDisplay:10.37,2013-11-19 01:30:00,
2013-11-18 20:31:00,45.9,39.1,29.60,SW,218,11.0,16.1,77,0.00,CLR,OVC,0.20,WeatherDisplay:10.37,2013-11-19 01:31:00,
2013-11-18 20:32:00,45.9,38.8,29.60,SW,218,11.5,16.1,76,0.00,CLR,OVC,0.20,WeatherDisplay:10.37,2013-11-19 01:32:00,
2013-11-18 20:33:00,45.9,39.1,29.60,SW,214,10.2,15.0,77,0.00,CLR,OVC,0.20,WeatherDisplay:10.37,2013-11-19 01:33:00,
2013-11-18 20:34:00,45.8,39.0,29.60,SW,215,9.0,12.7,77,0.00,CLR,OVC,0.20,WeatherDisplay:10.37,2013-11-19 01:34:00,
2013-11-18 20:35:00,45.8,39.0,29.60,SSW,198,7.8,11.5,77,0.00,CLR,OVC,0.20,WeatherDisplay:10.37,2013-11-19 01:35:00,
2013-11-18 20:37:00,45.8,39.0,29.60,SSW,204,9.0,11.5,77,0.00,CLR,OVC,0.20,WeatherDisplay:10.37,2013-11-19 01:37:00,
2013-11-18 20:38:00,45.7,38.9,29.60,SSW,206,8.9,11.5,77,0.00,CLR,OVC,0.20,WeatherDisplay:10.37,2013-11-19 01:38:00,
2013-11-18 20:39:00,45.7,38.9,29.60,SSW,203,9.1,11.5,77,0.00,CLR,OVC,0.20,WeatherDisplay:10.37,2013-11-19 01:39:00,
2013-11-18 20:40:00,45.7,38.6,29.60,SSW,206,9.9,12.0,76,0.00,CLR,OVC,0.20,WeatherDisplay:10.37,2013-11-19 01:40:00,
2013-11-18 20:42:00,45.7,38.9,29.60,SW,218,10.0,13.8,77,0.00,CLR,OVC,0.20,WeatherDisplay:10.37,2013-11-19 01:42:00,
2013-11-18 20:43:00,45.7,38.9,29.60,SSW,207,9.0,13.8,77,0.00,CLR,OVC,0.20,WeatherDisplay:10.37,2013-11-19 01:43:00,
2013-11-18 20:44:00,45.7,38.9,29.60,SSW,206,9.3,12.7,77,0.00,CLR,OVC,0.20,WeatherDisplay:10.37,2013-11-19 01:44:00,
2013-11-18 20:45:00,45.7,38.6,29.60,South,190,9.1,12.7,76,0.00,CLR,OVC,0.20,WeatherDisplay:10.37,2013-11-19 01:45:00,
2013-11-18 20:47:00,45.7,38.9,29.60,South,180,7.6,9.2,77,0.00,CLR,OVC,0.20,WeatherDisplay:10.37,2013-11-19 01:47:00,
2013-11-18 20:48:00,45.7,38.9,29.60,South,170,7.7,9.2,77,0.00,CLR,OVC,0.20,WeatherDisplay:10.37,2013-11-19 01:48:00,
2013-11-18 20:49:00,45.7,38.9,29.60,SSW,206,7.3,11.5,77,0.00,CLR,OVC,0.20,WeatherDisplay:10.37,2013-11-19 01:49:00,
2013-11-18 20:50:00,45.7,38.6,29.60,South,187,7.8,11.5,76,0.00,CLR,OVC,0.20,WeatherDisplay:10.37,2013-11-19 01:50:00,
2013-11-18 20:53:00,45.7,38.6,29.60,South,188,6.7,10.4,76,0.00,CLR,OVC,0.20,WeatherDisplay:10.37,2013-11-19 01:53:00,
2013-11-18 20:54:00,45.7,38.9,29.60,SSW,208,10.0,12.0,77,0.00,CLR,OVC,0.20,WeatherDisplay:10.37,2013-11-19 01:54:00,
2013-11-18 20:55:00,45.7,38.6,29.60,SSW,201,10.2,13.8,76,0.00,CLR,OVC,0.20,WeatherDisplay:10.37,2013-11-19 01:55:00,
2013-11-18 20:58:00,45.8,38.7,29.60,SSE,168,9.1,11.5,76,0.00,CLR,OVC,0.20,WeatherDisplay:10.37,2013-11-19 01:58:00,
2013-11-18 20:59:00,45.9,38.4,29.60,South,188,8.8,11.5,75,0.00,CLR,OVC,0.20,WeatherDisplay:10.37,2013-11-19 01:59:00,
2013-11-18 21:00:00,45.9,38.4,29.60,South,182,7.3,11.5,75,0.00,CLR,OVC,0.20,WeatherDisplay:10.37,2013-11-19 02:00:00,
2013-11-18 21:01:00,45.9,38.8,29.60,South,186,6.9,10.4,76,0.00,CLR,OVC,0.20,WeatherDisplay:10.37,2013-11-19 02:01:00,
2013-11-18 21:03:00,45.9,38.4,29.60,SSW,197,8.8,11.5,75,0.00,CLR,OVC,0.20,WeatherDisplay:10.37,2013-11-19 02:03:00,
2013-11-18 21:04:00,45.9,38.4,29.60,SSW,194,8.6,13.8,75,0.00,CLR,OVC,0.20,WeatherDisplay:10.37,2013-11-19 02:04:00,
2013-11-18 21:06:00,46.0,38.5,29.60,SSW,201,10.0,12.7,75,0.00,CLR,OVC,0.20,WeatherDisplay:10.37,2013-11-19 02:06:00,
2013-11-18 21:08:00,46.0,38.2,29.60,SSW,209,10.1,16.1,74,0.00,CLR,OVC,0.20,WeatherDisplay:10.37,2013-11-19 02:08:00,
2013-11-18 21:09:00,46.0,38.2,29.60,SSW,201,9.3,12.7,74,0.00,CLR,OVC,0.20,WeatherDisplay:10.37,2013-11-19 02:09:00,
2013-11-18 21:11:00,46.0,38.2,29.60,South,188,7.0,11.0,74,0.00,CLR,OVC,0.20,WeatherDisplay:10.37,2013-11-19 02:11:00,
2013-11-18 21:12:00,46.0,38.2,29.60,South,189,8.4,12.0,74,0.00,CLR,OVC,0.20,WeatherDisplay:10.37,2013-11-19 02:12:00,
2013-11-18 21:14:00,46.0,38.2,29.60,SSW,200,8.2,11.5,74,0.00,CLR,OVC,0.20,WeatherDisplay:10.37,2013-11-19 02:14:00,
2013-11-18 21:16:00,46.0,38.2,29.60,SSW,204,9.2,11.5,74,0.00,CLR,OVC,0.20,WeatherDisplay:10.37,2013-11-19 02:16:00,
2013-11-18 21:17:00,46.0,37.8,29.60,SSW,199,9.6,11.5,73,0.00,CLR,OVC,0.20,WeatherDisplay:10.37,2013-11-19 02:17:00,
2013-11-18 21:19:00,46.0,37.8,29.60,SSW,200,8.4,15.0,73,0.00,CLR,OVC,0.20,WeatherDisplay:10.37,2013-11-19 02:19:00,
2013-11-18 21:20:00,46.0,37.8,29.60,SSW,203,10.4,15.0,73,0.00,CLR,OVC,0.20,WeatherDisplay:10.37,2013-11-19 02:20:00,
2013-11-18 21:21:00,46.0,37.8,29.59,SSW,213,7.0,12.7,73,0.00,CLR,OVC,0.20,WeatherDisplay:10.37,2013-11-19 02:21:00,
2013-11-18 21:22:00,46.0,37.5,29.59,SSW,199,8.9,12.0,72,0.00,CLR,OVC,0.20,WeatherDisplay:10.37,2013-11-19 02:22:00,
2013-11-18 21:23:00,46.1,37.6,29.59,SW,215,9.5,11.5,72,0.00,CLR,OVC,0.20,WeatherDisplay:10.37,2013-11-19 02:23:00,
2013-11-18 21:24:00,46.1,37.9,29.59,SSW,197,8.5,11.5,73,0.00,CLR,OVC,0.20,WeatherDisplay:10.37,2013-11-19 02:24:00,
2013-11-18 21:25:00,46.1,37.6,29.59,SSW,208,8.1,12.0,72,0.00,CLR,OVC,0.20,WeatherDisplay:10.37,2013-11-19 02:25:00,
2013-11-18 21:27:00,46.0,37.5,29.59,SW,218,8.3,11.5,72,0.00,CLR,OVC,0.20,WeatherDisplay:10.37,2013-11-19 02:27:00,
2013-11-18 21:28:00,46.0,37.5,29.59,SSW,213,11.2,13.8,72,0.00,CLR,OVC,0.20,WeatherDisplay:10.37,2013-11-19 02:28:00,
2013-11-18 21:29:00,46.0,37.5,29.59,South,191,8.6,13.8,72,0.00,CLR,OVC,0.20,WeatherDisplay:10.37,2013-11-19 02:29:00,
2013-11-18 21:30:00,45.9,37.4,29.59,SSW,204,10.7,12.7,72,0.00,CLR,OVC,0.20,WeatherDisplay:10.37,2013-11-19 02:30:00,
2013-11-18 21:32:00,45.9,37.4,29.59,SSW,196,10.9,12.7,72,0.00,CLR,OVC,0.20,WeatherDisplay:10.37,2013-11-19 02:32:00,
2013-11-18 21:33:00,45.8,37.3,29.59,SSW,210,10.4,12.7,72,0.00,CLR,OVC,0.20,WeatherDisplay:10.37,2013-11-19 02:33:00,
2013-11-18 21:34:00,45.8,37.3,29.59,SW,216,9.1,11.5,72,0.00,CLR,OVC,0.20,WeatherDisplay:10.37,2013-11-19 02:34:00,
2013-11-18 21:35:00,45.7,37.2,29.59,SSW,193,9.5,14.0,72,0.00,CLR,OVC,0.20,WeatherDisplay:10.37,2013-11-19 02:35:00,
2013-11-18 21:37:00,45.6,37.1,29.59,SSW,200,11.8,18.4,72,0.00,CLR,OVC,0.20,WeatherDisplay:10.37,2013-11-19 02:37:00,
2013-11-18 21:38:00,45.6,37.1,29.59,SSW,192,11.4,16.1,72,0.00,CLR,OVC,0.20,WeatherDisplay:10.37,2013-11-19 02:38:00,
2013-11-18 21:39:00,45.6,37.1,29.59,SW,216,11.7,16.1,72,0.00,CLR,OVC,0.20,WeatherDisplay:10.37,2013-11-19 02:39:00,
2013-11-18 21:40:00,45.7,37.2,29.59,SSW,211,11.5,15.0,72,0.00,CLR,OVC,0.20,WeatherDisplay:10.37,2013-11-19 02:40:00,
2013-11-18 21:42:00,45.7,37.2,29.60,SW,217,11.5,17.3,72,0.00,CLR,OVC,0.20,WeatherDisplay:10.37,2013-11-19 02:42:00,
2013-11-18 21:44:00,45.7,37.2,29.59,SW,222,8.9,12.0,72,0.00,CLR,OVC,0.20,WeatherDisplay:10.37,2013-11-19 02:44:00,
2013-11-18 21:45:00,45.7,37.2,29.59,SW,221,10.4,13.8,72,0.00,CLR,OVC,0.20,WeatherDisplay:10.37,2013-11-19 02:45:00,
2013-11-18 21:47:00,45.7,37.2,29.60,SW,225,10.2,16.1,72,0.00,CLR,OVC,0.20,WeatherDisplay:10.37,2013-11-19 02:47:00,
2013-11-18 21:49:00,45.7,37.2,29.60,SW,227,14.2,17.3,72,0.00,CLR,OVC,0.20,WeatherDisplay:10.37,2013-11-19 02:49:00,
2013-11-18 21:50:00,45.7,37.2,29.60,SW,218,14.0,23.0,72,0.00,CLR,OVC,0.20,WeatherDisplay:10.37,2013-11-19 02:50:00,
2013-11-18 21:51:00,45.7,36.8,29.60,SW,229,13.6,20.7,71,0.00,CLR,OVC,0.20,WeatherDisplay:10.37,2013-11-19 02:51:00,
2013-11-18 21:52:00,45.8,36.9,29.60,SW,223,9.9,17.3,71,0.00,CLR,OVC,0.20,WeatherDisplay:10.37,2013-11-19 02:52:00,
2013-11-18 21:54:00,45.8,36.9,29.60,SSW,213,10.2,13.0,71,0.00,CLR,OVC,0.20,WeatherDisplay:10.37,2013-11-19 02:54:00,
2013-11-18 21:55:00,45.9,37.0,29.60,SW,234,14.8,21.9,71,0.00,CLR,OVC,0.20,WeatherDisplay:10.37,2013-11-19 02:55:00,
2013-11-18 21:56:00,45.9,37.0,29.60,SW,226,14.8,21.9,71,0.00,CLR,OVC,0.20,WeatherDisplay:10.37,2013-11-19 02:56:00,
2013-11-18 21:58:00,46.0,37.1,29.60,SW,225,10.2,13.8,71,0.00,CLR,OVC,0.20,WeatherDisplay:10.37,2013-11-19 02:58:00,
2013-11-18 21:59:00,46.0,37.1,29.60,SW,230,10.1,13.8,71,0.00,CLR,OVC,0.20,WeatherDisplay:10.37,2013-11-19 02:59:00,
2013-11-18 22:00:00,46.0,37.1,29.60,SW,217,9.8,11.5,71,0.00,CLR,OVC,0.20,WeatherDisplay:10.37,2013-11-19 03:00:00,
2013-11-18 22:01:00,46.0,37.1,29.60,SW,225,10.0,12.7,71,0.00,CLR,OVC,0.20,WeatherDisplay:10.37,2013-11-19 03:01:00,
2013-11-18 22:03:00,46.0,37.1,29.60,SW,224,10.7,12.7,71,0.00,CLR,OVC,0.20,WeatherDisplay:10.37,2013-11-19 03:03:00,
2013-11-18 22:04:00,46.0,37.1,29.60,SW,229,14.7,17.3,71,0.00,CLR,OVC,0.20,WeatherDisplay:10.37,2013-11-19 03:04:00,
2013-11-18 22:05:00,46.1,36.9,29.60,SW,226,14.1,19.6,70,0.00,CLR,OVC,0.20,WeatherDisplay:10.37,2013-11-19 03:05:00,
2013-11-18 22:06:00,46.1,36.9,29.60,SW,227,13.5,17.3,70,0.00,CLR,OVC,0.20,WeatherDisplay:10.37,2013-11-19 03:06:00,
2013-11-18 22:08:00,46.2,37.0,29.60,SW,227,11.6,13.8,70,0.00,CLR,OVC,0.20,WeatherDisplay:10.37,2013-11-19 03:08:00,
2013-11-18 22:10:00,46.3,36.7,29.60,SW,226,10.5,13.8,69,0.00,CLR,OVC,0.20,WeatherDisplay:10.37,2013-11-19 03:10:00,
2013-11-18 22:11:00,46.3,36.7,29.60,SW,229,10.7,15.0,69,0.00,CLR,OVC,0.20,WeatherDisplay:10.37,2013-11-19 03:11:00,
2013-11-18 22:13:00,46.3,37.0,29.60,SW,233,10.0,13.0,70,0.00,CLR,OVC,0.20,WeatherDisplay:10.37,2013-11-19 03:13:00,
2013-11-18 22:15:00,46.3,36.7,29.60,SW,218,11.4,12.7,69,0.00,CLR,OVC,0.20,WeatherDisplay:10.37,2013-11-19 03:15:00,
2013-11-18 22:16:00,46.3,36.7,29.60,SSW,194,9.5,12.7,69,0.00,CLR,OVC,0.20,WeatherDisplay:10.37,2013-11-19 03:16:00,
2013-11-18 22:17:00,46.3,36.7,29.60,SSW,206,9.0,11.5,69,0.00,CLR,OVC,0.20,WeatherDisplay:10.37,2013-11-19 03:17:00,
2013-11-18 22:18:00,46.4,36.8,29.60,SSW,202,11.1,16.1,69,0.00,CLR,OVC,0.20,WeatherDisplay:10.37,2013-11-19 03:18:00,
2013-11-18 22:20:00,46.4,36.8,29.60,SSW,211,9.4,12.7,69,0.00,CLR,OVC,0.20,WeatherDisplay:10.37,2013-11-19 03:20:00,
2013-11-18 22:21:00,46.3,36.7,29.60,SSW,202,10.0,12.7,69,0.00,CLR,OVC,0.20,WeatherDisplay:10.37,2013-11-19 03:21:00,
2013-11-18 22:22:00,46.3,36.7,29.60,SW,220,10.2,12.7,69,0.00,CLR,OVC,0.20,WeatherDisplay:10.37,2013-11-19 03:22:00,
2013-11-18 22:24:00,46.3,36.7,29.60,SW,223,11.0,13.8,69,0.00,CLR,OVC,0.20,WeatherDisplay:10.37,2013-11-19 03:24:00,
2013-11-18 22:26:00,46.2,36.6,29.60,SSW,213,10.5,15.0,69,0.00,CLR,OVC,0.20,WeatherDisplay:10.37,2013-11-19 03:26:00,
2013-11-18 22:27:00,46.2,36.6,29.61,SW,217,11.8,18.0,69,0.00,CLR,OVC,0.20,WeatherDisplay:10.37,2013-11-19 03:27:00,
2013-11-18 22:29:00,46.1,36.5,29.61,SW,234,14.9,19.6,69,0.00,CLR,OVC,0.20,WeatherDisplay:10.37,2013-11-19 03:29:00,
2013-11-18 22:31:00,46.1,36.5,29.60,SW,225,12.2,13.8,69,0.00,CLR,OVC,0.20,WeatherDisplay:10.37,2013-11-19 03:31:00,
2013-11-18 22:32:00,46.1,36.9,29.60,SW,218,11.1,17.3,70,0.00,CLR,OVC,0.20,WeatherDisplay:10.37,2013-11-19 03:32:00,
2013-11-18 22:33:00,46.0,36.8,29.60,SW,220,12.3,16.1,70,0.00,CLR,OVC,0.20,WeatherDisplay:10.37,2013-11-19 03:33:00,
2013-11-18 22:34:00,46.0,36.4,29.60,SW,231,13.6,21.0,69,0.00,CLR,OVC,0.20,WeatherDisplay:10.37,2013-11-19 03:34:00,
2013-11-18 22:36:00,45.8,36.2,29.60,SW,222,13.9,18.0,69,0.00,CLR,OVC,0.20,WeatherDisplay:10.37,2013-11-19 03:36:00,
2013-11-18 22:37:00,45.7,36.1,29.60,SW,221,17.1,20.7,69,0.00,CLR,OVC,0.20,WeatherDisplay:10.37,2013-11-19 03:37:00,
2013-11-18 22:38:00,45.7,36.1,29.60,SW,221,14.0,19.6,69,0.00,CLR,OVC,0.20,WeatherDisplay:10.37,2013-11-19 03:38:00,
2013-11-18 22:40:00,45.6,36.4,29.61,SW,224,12.8,19.6,70,0.00,CLR,OVC,0.20,WeatherDisplay:10.37,2013-11-19 03:40:00,
2013-11-18 22:41:00,45.5,36.3,29.61,SW,222,14.4,17.3,70,0.00,CLR,OVC,0.20,WeatherDisplay:10.37,2013-11-19 03:41:00,
2013-11-18 22:42:00,45.4,36.2,29.61,SW,226,13.4,17.3,70,0.00,CLR,OVC,0.20,WeatherDisplay:10.37,2013-11-19 03:42:00,
2013-11-18 22:43:00,45.4,36.2,29.61,SW,215,14.5,19.6,70,0.00,CLR,OVC,0.20,WeatherDisplay:10.37,2013-11-19 03:43:00,
2013-11-18 22:45:00,45.3,36.4,29.61,SW,229,14.1,22.0,71,0.00,CLR,OVC,0.20,WeatherDisplay:10.37,2013-11-19 03:45:00,
2013-11-18 22:46:00,45.2,36.4,29.61,SW,232,17.5,21.9,71,0.00,CLR,OVC,0.20,WeatherDisplay:10.37,2013-11-19 03:46:00,
2013-11-18 22:47:00,45.2,36.4,29.62,SW,229,16.1,19.6,71,0.00,CLR,OVC,0.20,WeatherDisplay:10.37,2013-11-19 03:47:00,
2013-11-18 22:48:00,45.1,36.3,29.62,WSW,241,12.7,19.6,71,0.00,CLR,OVC,0.20,WeatherDisplay:10.37,2013-11-19 03:48:00,
2013-11-18 22:50:00,45.0,36.2,29.62,WSW,252,10.2,12.7,71,0.00,CLR,OVC,0.20,WeatherDisplay:10.37,2013-11-19 03:50:00,
2013-11-18 22:51:00,44.9,36.1,29.62,West,268,8.6,11.5,71,0.00,CLR,OVC,0.20,WeatherDisplay:10.37,2013-11-19 03:51:00,
2013-11-18 22:53:00,44.8,36.3,29.62,West,276,5.2,8.0,72,0.00,CLR,OVC,0.20,WeatherDisplay:10.37,2013-11-19 03:53:00,
2013-11-18 22:54:00,44.8,36.0,29.62,WNW,285,8.7,11.5,71,0.00,CLR,OVC,0.20,WeatherDisplay:10.37,2013-11-19 03:54:00,
2013-11-18 22:55:00,44.8,36.0,29.62,WNW,283,8.0,11.5,71,0.00,CLR,OVC,0.20,WeatherDisplay:10.37,2013-11-19 03:55:00,
2013-11-18 22:56:00,44.8,36.0,29.62,WNW,296,7.8,11.5,71,0.00,CLR,OVC,0.20,WeatherDisplay:10.37,2013-11-19 03:56:00,
2013-11-18 22:58:00,44.8,36.0,29.62,West,281,6.0,8.0,71,0.00,CLR,OVC,0.20,WeatherDisplay:10.37,2013-11-19 03:58:00,
2013-11-18 22:59:00,44.8,36.0,29.63,West,281,6.1,9.2,71,0.00,CLR,OVC,0.20,WeatherDisplay:10.37,2013-11-19 03:59:00,
2013-11-18 23:00:00,44.8,35.6,29.63,WNW,284,4.9,6.9,70,0.00,CLR,OVC,0.20,WeatherDisplay:10.37,2013-11-19 04:00:00,
2013-11-18 23:03:00,45.0,35.8,29.63,NW,310,8.1,9.2,70,0.00,CLR,OVC,0.20,WeatherDisplay:10.37,2013-11-19 04:03:00,
2013-11-18 23:04:00,45.0,36.2,29.63,NW,305,9.3,13.8,71,0.00,CLR,OVC,0.20,WeatherDisplay:10.37,2013-11-19 04:04:00,
2013-11-18 23:05:00,45.1,35.9,29.63,WNW,300,4.6,13.8,70,0.00,CLR,OVC,0.20,WeatherDisplay:10.37,2013-11-19 04:05:00,
2013-11-18 23:07:00,45.2,35.6,29.63,WNW,301,4.9,6.9,69,0.00,CLR,OVC,0.20,WeatherDisplay:10.37,2013-11-19 04:07:00,
2013-11-18 23:08:00,45.2,36.0,29.63,WNW,302,5.2,6.9,70,0.00,CLR,OVC,0.20,WeatherDisplay:10.37,2013-11-19 04:08:00,
2013-11-18 23:09:00,45.2,36.0,29.63,WNW,293,5.2,8.1,70,0.00,CLR,OVC,0.20,WeatherDisplay:10.37,2013-11-19 04:09:00,
2013-11-18 23:10:00,45.2,36.0,29.63,West,264,4.8,8.1,70,0.00,CLR,OVC,0.20,WeatherDisplay:10.37,2013-11-19 04:10:00,
2013-11-18 23:11:00,45.2,36.0,29.63,WSW,251,6.5,11.0,70,0.00,CLR,OVC,0.20,WeatherDisplay:10.37,2013-11-19 04:11:00,
2013-11-18 23:12:00,45.2,35.6,29.64,West,270,9.0,11.5,69,0.00,CLR,OVC,0.20,WeatherDisplay:10.37,2013-11-19 04:12:00,
2013-11-18 23:13:00,45.2,35.6,29.64,West,263,10.7,15.0,69,0.00,CLR,OVC,0.20,WeatherDisplay:10.37,2013-11-19 04:13:00,
2013-11-18 23:14:00,45.2,35.3,29.64,WSW,255,9.0,15.0,68,0.00,CLR,OVC,0.20,WeatherDisplay:10.37,2013-11-19 04:14:00,
2013-11-18 23:15:00,45.2,35.3,29.64,West,265,7.9,11.5,68,0.00,CLR,OVC,0.20,WeatherDisplay:10.37,2013-11-19 04:15:00,
2013-11-18 23:16:00,45.2,35.3,29.64,WNW,290,5.9,11.5,68,0.00,CLR,OVC,0.20,WeatherDisplay:10.37,2013-11-19 04:16:00,
2013-11-18 23:17:00,45.3,35.4,29.64,NW,307,4.8,11.5,68,0.00,CLR,OVC,0.20,WeatherDisplay:10.37,2013-11-19 04:17:00,
2013-11-18 23:18:00,45.3,35.4,29.64,West,281,4.9,6.9,68,0.00,CLR,OVC,0.20,WeatherDisplay:10.37,2013-11-19 04:18:00,
2013-11-18 23:20:00,45.4,35.1,29.64,West,267,7.0,12.0,67,0.00,CLR,OVC,0.20,WeatherDisplay:10.37,2013-11-19 04:20:00,
2013-11-18 23:21:00,45.3,35.4,29.64,SW,236,7.2,9.2,68,0.00,CLR,OVC,0.20,WeatherDisplay:10.37,2013-11-19 04:21:00,
2013-11-18 23:22:00,45.3,35.4,29.64,WNW,299,5.5,10.4,68,0.00,CLR,OVC,0.20,WeatherDisplay:10.37,2013-11-19 04:22:00,
2013-11-18 23:23:00,45.3,35.0,29.63,WNW,303,3.5,9.2,67,0.00,CLR,OVC,0.20,WeatherDisplay:10.37,2013-11-19 04:23:00,
2013-11-18 23:25:00,45.3,34.6,29.63,WNW,303,5.4,6.9,66,0.00,CLR,OVC,0.20,WeatherDisplay:10.37,2013-11-19 04:25:00,
2013-11-18 23:27:00,45.3,34.6,29.63,West,262,5.9,9.2,66,0.00,CLR,OVC,0.20,WeatherDisplay:10.37,2013-11-19 04:27:00,
2013-11-18 23:28:00,45.4,35.1,29.63,West,262,4.9,9.2,67,0.00,CLR,OVC,0.20,WeatherDisplay:10.37,2013-11-19 04:28:00,
2013-11-18 23:30:00,45.3,35.4,29.63,SW,231,6.5,9.2,68,0.00,CLR,OVC,0.20,WeatherDisplay:10.37,2013-11-19 04:30:00,
2013-11-18 23:31:00,45.2,35.3,29.63,SW,221,7.7,9.2,68,0.00,CLR,OVC,0.20,WeatherDisplay:10.37,2013-11-19 04:31:00,
2013-11-18 23:32:00,45.1,35.2,29.63,SW,215,5.9,11.5,68,0.00,CLR,OVC,0.20,WeatherDisplay:10.37,2013-11-19 04:32:00,
2013-11-18 23:33:00,45.0,35.1,29.63,SW,215,5.0,6.9,68,0.00,CLR,OVC,0.20,WeatherDisplay:10.37,2013-11-19 04:33:00,
2013-11-18 23:36:00,44.7,34.8,29.63,SW,215,2.5,4.0,68,0.00,CLR,OVC,0.20,WeatherDisplay:10.37,2013-11-19 04:36:00,
2013-11-18 23:37:00,44.6,34.7,29.63,SSW,210,4.1,6.0,68,0.00,CLR,OVC,0.20,WeatherDisplay:10.37,2013-11-19 04:37:00,
2013-11-18 23:38:00,44.6,34.7,29.63,SSW,198,4.6,7.0,68,0.00,CLR,OVC,0.20,WeatherDisplay:10.37,2013-11-19 04:38:00,
2013-11-18 23:39:00,44.5,34.6,29.63,SSW,197,5.7,6.9,68,0.00,CLR,OVC,0.20,WeatherDisplay:10.37,2013-11-19 04:39:00,
2013-11-18 23:41:00,44.4,34.5,29.63,SW,216,4.9,9.2,68,0.00,CLR,OVC,0.20,WeatherDisplay:10.37,2013-11-19 04:41:00,
2013-11-18 23:43:00,44.3,34.4,29.63,SSW,209,6.6,9.2,68,0.00,CLR,OVC,0.20,WeatherDisplay:10.37,2013-11-19 04:43:00,
2013-11-18 23:44:00,44.2,34.7,29.63,SSW,212,6.6,10.4,69,0.00,CLR,OVC,0.20,WeatherDisplay:10.37,2013-11-19 04:44:00,
2013-11-18 23:46:00,44.1,33.8,29.64,SSW,211,6.8,11.5,67,0.00,CLR,OVC,0.20,WeatherDisplay:10.37,2013-11-19 04:46:00,
2013-11-18 23:47:00,44.1,33.8,29.64,SSW,203,6.6,8.1,67,0.00,CLR,OVC,0.20,WeatherDisplay:10.37,2013-11-19 04:47:00,
2013-11-18 23:48:00,44.1,33.8,29.64,SSW,210,7.5,10.4,67,0.00,CLR,OVC,0.20,WeatherDisplay:10.37,2013-11-19 04:48:00,
2013-11-18 23:49:00,44.1,33.8,29.64,SW,221,10.1,16.1,67,0.00,CLR,OVC,0.20,WeatherDisplay:10.37,2013-11-19 04:49:00,
2013-11-18 23:52:00,43.9,33.6,29.64,SW,224,11.3,15.0,67,0.00,CLR,OVC,0.20,WeatherDisplay:10.37,2013-11-19 04:52:00,
2013-11-18 23:54:00,43.8,33.6,29.64,SW,218,11.5,13.8,67,0.00,CLR,OVC,0.20,WeatherDisplay:10.37,2013-11-19 04:54:00,
2013-11-18 23:55:00,43.8,33.6,29.64,SW,216,11.2,14.0,67,0.00,CLR,OVC,0.20,WeatherDisplay:10.37,2013-11-19 04:55:00,
2013-11-18 23:57:00,43.8,33.6,29.64,SW,227,8.7,13.0,67,0.00,CLR,OVC,0.20,WeatherDisplay:10.37,2013-11-19 04:57:00,
2013-11-18 23:59:00,43.7,33.5,29.64,SW,223,12.7,16.1,67,0.00,CLR,OVC,0.20,WeatherDisplay:10.37,2013-11-19 04:59:00,